| time (UTC) | temp C | wind direction | speed KPH | gust KPH | rain 1hr cm | rain 24hr cm | rain mn cm | humidity % | barometer mb |
| 20260506134617 | 22 | 114 | 12.9 | 29.0 | 0.00 | 0.00 | 0.00 | 47 | 1078.1 |
| 20260506134503 | 22 | 116 | 12.9 | 29.0 | 0.00 | 0.00 | 0.00 | 47 | 1078.1 |
| 20260506134303 | 22 | 116 | 14.5 | 29.0 | 0.00 | 0.00 | 0.00 | 47 | 1078.1 |
| 20260506134203 | 22 | 114 | 16.1 | 29.0 | 0.00 | 0.00 | 0.00 | 47 | 1077.8 |
| 20260506134103 | 22 | 113 | 16.1 | 29.0 | 0.00 | 0.00 | 0.00 | 47 | 1078.1 |
| 20260506134017 | 22 | 112 | 16.1 | 30.6 | 0.00 | 0.00 | 0.00 | 47 | 1078.1 |
| 20260506134003 | 22 | 112 | 16.1 | 30.6 | 0.00 | 0.00 | 0.00 | 47 | 1078.1 |
| 20260506133903 | 22 | 113 | 16.1 | 30.6 | 0.00 | 0.00 | 0.00 | 46 | 1078.2 |
| 20260506133818 | 22 | 112 | 14.5 | 30.6 | 0.00 | 0.00 | 0.00 | 47 | 1078.2 |
| 20260506133704 | 22 | 112 | 14.5 | 30.6 | 0.00 | 0.00 | 0.00 | 46 | 1078.0 |
| 20260506133503 | 22 | 109 | 12.9 | 30.6 | 0.00 | 0.00 | 0.00 | 46 | 1078.2 |
| 20260506133403 | 22 | 104 | 12.9 | 30.6 | 0.00 | 0.00 | 0.00 | 47 | 1077.9 |
| 20260506133303 | 22 | 107 | 12.9 | 37.0 | 0.00 | 0.00 | 0.00 | 46 | 1077.8 |
| 20260506133203 | 22 | 105 | 11.3 | 37.0 | 0.00 | 0.00 | 0.00 | 46 | 1078.0 |
| 20260506133103 | 22 | 105 | 11.3 | 37.0 | 0.00 | 0.00 | 0.00 | 46 | 1078.1 |
| 20260506133003 | 22 | 103 | 11.3 | 37.0 | 0.00 | 0.00 | 0.00 | 46 | 1078.0 |
| 20260506132903 | 22 | 104 | 11.3 | 37.0 | 0.00 | 0.00 | 0.00 | 46 | 1078.2 |
| 20260506132818 | 22 | 105 | 11.3 | 37.0 | 0.00 | 0.00 | 0.00 | 45 | 1078.2 |
| 20260506132803 | 22 | 104 | 11.3 | 37.0 | 0.00 | 0.00 | 0.00 | 45 | 1078.1 |
| 20260506132703 | 22 | 102 | 11.3 | 37.0 | 0.00 | 0.00 | 0.00 | 46 | 1078.1 |
| 20260506132503 | 22 | 104 | 12.9 | 37.0 | 0.00 | 0.00 | 0.00 | 46 | 1078.4 |
| 20260506132403 | 22 | 105 | 12.9 | 37.0 | 0.00 | 0.00 | 0.00 | 45 | 1078.2 |
| 20260506132217 | 22 | 101 | 12.9 | 29.0 | 0.00 | 0.00 | 0.00 | 45 | 1078.1 |
| 20260506132203 | 22 | 101 | 12.9 | 29.0 | 0.00 | 0.00 | 0.00 | 45 | 1078.3 |
| 20260506132103 | 22 | 101 | 11.3 | 29.0 | 0.00 | 0.00 | 0.00 | 46 | 1078.4 |
| 20260506131917 | 22 | 100 | 12.9 | 29.0 | 0.00 | 0.00 | 0.00 | 46 | 1078.1 |
| 20260506131903 | 22 | 100 | 12.9 | 29.0 | 0.00 | 0.00 | 0.00 | 46 | 1078.4 |
| 20260506131803 | 22 | 100 | 12.9 | 29.0 | 0.00 | 0.00 | 0.00 | 45 | 1078.4 |
| 20260506131603 | 22 | 100 | 12.9 | 29.0 | 0.00 | 0.00 | 0.00 | 45 | 1078.3 |
| 20260506131503 | 22 | 104 | 11.3 | 29.0 | 0.00 | 0.00 | 0.00 | 45 | 1078.6 |
| 20260506131403 | 22 | 107 | 11.3 | 29.0 | 0.00 | 0.00 | 0.00 | 46 | 1078.4 |
| 20260506131303 | 22 | 113 | 11.3 | 20.9 | 0.00 | 0.00 | 0.00 | 46 | 1078.1 |
| 20260506131203 | 22 | 118 | 11.3 | 20.9 | 0.00 | 0.00 | 0.00 | 46 | 1078.2 |
| 20260506131103 | 22 | 122 | 11.3 | 22.5 | 0.00 | 0.00 | 0.00 | 46 | 1078.2 |
| 20260506131003 | 22 | 124 | 11.3 | 22.5 | 0.00 | 0.00 | 0.00 | 46 | 1078.5 |
| 20260506130903 | 22 | 123 | 11.3 | 22.5 | 0.00 | 0.00 | 0.00 | 45 | 1078.3 |
| 20260506130803 | 22 | 123 | 12.9 | 25.7 | 0.00 | 0.00 | 0.00 | 45 | 1078.3 |
| 20260506130703 | 22 | 123 | 12.9 | 25.7 | 0.00 | 0.00 | 0.00 | 44 | 1078.2 |
| 20260506130617 | 22 | 123 | 12.9 | 25.7 | 0.00 | 0.00 | 0.00 | 45 | 1078.2 |
| 20260506130603 | 22 | 122 | 12.9 | 25.7 | 0.00 | 0.00 | 0.00 | 45 | 1078.4 |
| 20260506130517 | 22 | 123 | 11.3 | 25.7 | 0.00 | 0.00 | 0.00 | 45 | 1078.4 |
| 20260506130503 | 22 | 121 | 11.3 | 25.7 | 0.00 | 0.00 | 0.00 | 45 | 1078.3 |
| 20260506130418 | 22 | 118 | 11.3 | 25.7 | 0.00 | 0.00 | 0.00 | 45 | 1078.3 |
| 20260506130103 | 22 | 112 | 11.3 | 25.7 | 0.00 | 0.00 | 0.00 | 45 | 1078.4 |
| 20260506130004 | 22 | 113 | 11.3 | 25.7 | 0.00 | 0.00 | 0.00 | 45 | 1078.6 |
| 20260506125903 | 22 | 111 | 11.3 | 25.7 | 0.00 | 0.00 | 0.00 | 45 | 1078.5 |
| 20260506125803 | 22 | 110 | 9.7 | 24.1 | 0.00 | 0.00 | 0.00 | 44 | 1078.6 |
| 20260506125703 | 22 | 110 | 8.0 | 22.5 | 0.00 | 0.00 | 0.00 | 45 | 1078.5 |
| 20260506125603 | 22 | 111 | 8.0 | 22.5 | 0.00 | 0.00 | 0.00 | 44 | 1078.5 |
| 20260506125517 | 22 | 106 | 9.7 | 22.5 | 0.00 | 0.00 | 0.00 | 44 | 1078.5 |
| 20260506125503 | 22 | 106 | 9.7 | 22.5 | 0.00 | 0.00 | 0.00 | 44 | 1078.7 |
| 20260506125418 | 22 | 106 | 9.7 | 22.5 | 0.00 | 0.00 | 0.00 | 44 | 1078.7 |
| 20260506125403 | 22 | 107 | 9.7 | 22.5 | 0.00 | 0.00 | 0.00 | 45 | 1078.5 |
| 20260506125318 | 22 | 108 | 8.0 | 22.5 | 0.00 | 0.00 | 0.00 | 45 | 1078.5 |
| 20260506125003 | 22 | 109 | 6.4 | 22.5 | 0.00 | 0.00 | 0.00 | 46 | 1078.6 |
| 20260506124903 | 22 | 116 | 8.0 | 22.5 | 0.00 | 0.00 | 0.00 | 46 | 1078.7 |
| 20260506124803 | 22 | 117 | 8.0 | 22.5 | 0.00 | 0.00 | 0.00 | 46 | 1078.7 |
| 20260506124703 | 22 | 120 | 8.0 | 22.5 | 0.00 | 0.00 | 0.00 | 46 | 1078.7 |
| 20260506124603 | 22 | 122 | 8.0 | 22.5 | 0.00 | 0.00 | 0.00 | 45 | 1078.4 |
| 20260506124503 | 22 | 123 | 8.0 | 22.5 | 0.00 | 0.00 | 0.00 | 45 | 1078.6 |
| 20260506124403 | 22 | 121 | 9.7 | 22.5 | 0.00 | 0.00 | 0.00 | 46 | 1078.7 |
| 20260506124303 | 22 | 119 | 9.7 | 22.5 | 0.00 | 0.00 | 0.00 | 45 | 1078.8 |
| 20260506124203 | 22 | 119 | 9.7 | 22.5 | 0.00 | 0.00 | 0.00 | 45 | 1078.8 |
| 20260506124103 | 22 | 118 | 11.3 | 22.5 | 0.00 | 0.00 | 0.00 | 45 | 1078.8 |
| 20260506124003 | 22 | 118 | 11.3 | 22.5 | 0.00 | 0.00 | 0.00 | 45 | 1078.4 |
| 20260506123917 | 22 | 118 | 11.3 | 25.7 | 0.00 | 0.00 | 0.00 | 45 | 1078.7 |
| 20260506123903 | 22 | 118 | 11.3 | 25.7 | 0.00 | 0.00 | 0.00 | 45 | 1078.7 |
| 20260506123803 | 22 | 116 | 11.3 | 25.7 | 0.00 | 0.00 | 0.00 | 45 | 1078.8 |
| 20260506123718 | 21 | 115 | 11.3 | 25.7 | 0.00 | 0.00 | 0.00 | 46 | 1078.8 |
| 20260506123603 | 21 | 116 | 11.3 | 25.7 | 0.00 | 0.00 | 0.00 | 45 | 1078.7 |
| 20260506123517 | 22 | 118 | 11.3 | 25.7 | 0.00 | 0.00 | 0.00 | 45 | 1078.7 |
| 20260506123403 | 22 | 120 | 11.3 | 25.7 | 0.00 | 0.00 | 0.00 | 45 | 1078.8 |
| 20260506123318 | 22 | 121 | 11.3 | 25.7 | 0.00 | 0.00 | 0.00 | 45 | 1078.8 |
| 20260506123203 | 22 | 122 | 9.7 | 25.7 | 0.00 | 0.00 | 0.00 | 45 | 1078.8 |
| 20260506123003 | 22 | 117 | 11.3 | 25.7 | 0.00 | 0.00 | 0.00 | 44 | 1078.8 |
| 20260506122903 | 22 | 114 | 11.3 | 25.7 | 0.00 | 0.00 | 0.00 | 44 | 1078.8 |
| 20260506122803 | 22 | 112 | 9.7 | 22.5 | 0.00 | 0.00 | 0.00 | 45 | 1078.8 |
| 20260506122703 | 22 | 112 | 8.0 | 17.7 | 0.00 | 0.00 | 0.00 | 44 | 1078.8 |
| 20260506122603 | 22 | 109 | 8.0 | 17.7 | 0.00 | 0.00 | 0.00 | 45 | 1079.2 |
| 20260506122503 | 22 | 107 | 8.0 | 17.7 | 0.00 | 0.00 | 0.00 | 45 | 1079.0 |
| 20260506122403 | 22 | 103 | 8.0 | 17.7 | 0.00 | 0.00 | 0.00 | 45 | 1079.2 |
| 20260506122305 | 22 | 100 | 8.0 | 17.7 | 0.00 | 0.00 | 0.00 | 45 | 1078.7 |
| 20260506122203 | 22 | 101 | 8.0 | 17.7 | 0.00 | 0.00 | 0.00 | 46 | 1079.2 |
| 20260506122103 | 22 | 103 | 8.0 | 17.7 | 0.00 | 0.00 | 0.00 | 46 | 1079.0 |
| 20260506122018 | 22 | 109 | 8.0 | 20.9 | 0.00 | 0.00 | 0.00 | 46 | 1079.0 |
| 20260506122003 | 22 | 109 | 8.0 | 20.9 | 0.00 | 0.00 | 0.00 | 46 | 1079.0 |
| 20260506121903 | 22 | 106 | 8.0 | 20.9 | 0.00 | 0.00 | 0.00 | 46 | 1079.2 |
| 20260506121703 | 22 | 107 | 9.7 | 20.9 | 0.00 | 0.00 | 0.00 | 46 | 1078.9 |
| 20260506121618 | 22 | 106 | 9.7 | 20.9 | 0.00 | 0.00 | 0.00 | 46 | 1078.9 |
| 20260506121603 | 22 | 105 | 9.7 | 20.9 | 0.00 | 0.00 | 0.00 | 46 | 1079.0 |
| 20260506121503 | 22 | 104 | 9.7 | 20.9 | 0.00 | 0.00 | 0.00 | 46 | 1079.2 |
| 20260506121303 | 22 | 101 | 11.3 | 27.4 | 0.00 | 0.00 | 0.00 | 45 | 1079.0 |
| 20260506121217 | 22 | 98 | 11.3 | 27.4 | 0.00 | 0.00 | 0.00 | 45 | 1079.0 |
| 20260506121203 | 22 | 98 | 11.3 | 27.4 | 0.00 | 0.00 | 0.00 | 45 | 1078.9 |
| 20260506121103 | 22 | 95 | 11.3 | 27.4 | 0.00 | 0.00 | 0.00 | 44 | 1079.0 |
| 20260506120903 | 22 | 91 | 11.3 | 27.4 | 0.00 | 0.00 | 0.00 | 45 | 1079.0 |
| 20260506120803 | 22 | 90 | 11.3 | 27.4 | 0.00 | 0.00 | 0.00 | 45 | 1079.0 |
| 20260506120703 | 22 | 88 | 11.3 | 27.4 | 0.00 | 0.00 | 0.00 | 44 | 1079.0 |
| 20260506120603 | 22 | 87 | 11.3 | 27.4 | 0.00 | 0.00 | 0.00 | 44 | 1079.0 |
| 20260506120503 | 23 | 89 | 11.3 | 27.4 | 0.00 | 0.00 | 0.00 | 44 | 1079.2 |
| 20260506120403 | 23 | 91 | 11.3 | 27.4 | 0.00 | 0.00 | 0.00 | 43 | 1079.2 |
| 20260506120303 | 23 | 93 | 9.7 | 25.7 | 0.00 | 0.00 | 0.00 | 42 | 1079.0 |
| 20260506120203 | 23 | 99 | 9.7 | 25.7 | 0.00 | 0.00 | 0.00 | 43 | 1079.0 |
| 20260506120103 | 23 | 104 | 9.7 | 25.7 | 0.00 | 0.00 | 0.00 | 42 | 1079.2 |
| 20260506120003 | 23 | 106 | 9.7 | 25.7 | 0.00 | 0.00 | 0.00 | 42 | 1078.8 |
| 20260506115903 | 23 | 108 | 8.0 | 25.7 | 0.00 | 0.00 | 0.00 | 42 | 1078.9 |
| 20260506115817 | 23 | 112 | 8.0 | 25.7 | 0.00 | 0.00 | 0.00 | 42 | 1078.9 |
| 20260506115803 | 23 | 112 | 8.0 | 25.7 | 0.00 | 0.00 | 0.00 | 42 | 1079.2 |
| 20260506115703 | 23 | 114 | 8.0 | 25.7 | 0.00 | 0.00 | 0.00 | 41 | 1079.0 |
| 20260506115503 | 23 | 114 | 8.0 | 25.7 | 0.00 | 0.00 | 0.00 | 42 | 1079.3 |
| 20260506115403 | 23 | 115 | 8.0 | 25.7 | 0.00 | 0.00 | 0.00 | 42 | 1079.3 |
| 20260506115306 | 23 | 112 | 8.0 | 25.7 | 0.00 | 0.00 | 0.00 | 42 | 1079.4 |
| 20260506115203 | 23 | 108 | 8.0 | 25.7 | 0.00 | 0.00 | 0.00 | 42 | 1078.9 |
| 20260506115103 | 23 | 107 | 6.4 | 16.1 | 0.00 | 0.00 | 0.00 | 43 | 1079.2 |
| 20260506115003 | 23 | 109 | 8.0 | 16.1 | 0.00 | 0.00 | 0.00 | 42 | 1078.9 |
| 20260506114918 | 23 | 111 | 6.4 | 16.1 | 0.00 | 0.00 | 0.00 | 42 | 1078.9 |
| 20260506114903 | 23 | 111 | 6.4 | 16.1 | 0.00 | 0.00 | 0.00 | 42 | 1079.0 |
| 20260506114817 | 23 | 111 | 8.0 | 16.1 | 0.00 | 0.00 | 0.00 | 42 | 1079.0 |
| 20260506114803 | 23 | 111 | 8.0 | 16.1 | 0.00 | 0.00 | 0.00 | 42 | 1078.9 |
| 20260506114503 | 23 | 134 | 6.4 | 16.1 | 0.00 | 0.00 | 0.00 | 43 | 1079.0 |
| 20260506114417 | 23 | 136 | 6.4 | 16.1 | 0.00 | 0.00 | 0.00 | 44 | 1079.0 |
| 20260506114403 | 23 | 137 | 6.4 | 16.1 | 0.00 | 0.00 | 0.00 | 44 | 1079.3 |
| 20260506114303 | 23 | 144 | 6.4 | 16.1 | 0.00 | 0.00 | 0.00 | 44 | 1079.2 |
| 20260506114103 | 23 | 150 | 6.4 | 14.5 | 0.00 | 0.00 | 0.00 | 44 | 1079.0 |
| 20260506114003 | 23 | 149 | 6.4 | 14.5 | 0.00 | 0.00 | 0.00 | 43 | 1079.0 |
| 20260506113903 | 23 | 150 | 6.4 | 14.5 | 0.00 | 0.00 | 0.00 | 43 | 1079.2 |
| 20260506113803 | 23 | 151 | 6.4 | 14.5 | 0.00 | 0.00 | 0.00 | 42 | 1079.3 |
| 20260506113717 | 23 | 149 | 6.4 | 14.5 | 0.00 | 0.00 | 0.00 | 43 | 1079.3 |
| 20260506113703 | 23 | 147 | 6.4 | 14.5 | 0.00 | 0.00 | 0.00 | 43 | 1079.0 |
| 20260506113603 | 23 | 136 | 6.4 | 16.1 | 0.00 | 0.00 | 0.00 | 42 | 1079.2 |
| 20260506113517 | 23 | 132 | 6.4 | 16.1 | 0.00 | 0.00 | 0.00 | 43 | 1079.2 |
| 20260506113417 | 23 | 131 | 6.4 | 16.1 | 0.00 | 0.00 | 0.00 | 43 | 1079.0 |
| 20260506113403 | 23 | 131 | 6.4 | 16.1 | 0.00 | 0.00 | 0.00 | 43 | 1079.2 |
| 20260506113103 | 23 | 127 | 6.4 | 16.1 | 0.00 | 0.00 | 0.00 | 43 | 1079.3 |
| 20260506113003 | 23 | 121 | 6.4 | 16.1 | 0.00 | 0.00 | 0.00 | 45 | 1079.2 |
| 20260506112918 | 23 | 114 | 6.4 | 16.1 | 0.00 | 0.00 | 0.00 | 45 | 1079.2 |
| 20260506112903 | 23 | 114 | 6.4 | 16.1 | 0.00 | 0.00 | 0.00 | 44 | 1079.2 |
| 20260506112803 | 23 | 108 | 6.4 | 16.1 | 0.00 | 0.00 | 0.00 | 44 | 1079.4 |
| 20260506112603 | 23 | 102 | 6.4 | 14.5 | 0.00 | 0.00 | 0.00 | 43 | 1079.2 |
| 20260506112503 | 23 | 100 | 6.4 | 14.5 | 0.00 | 0.00 | 0.00 | 44 | 1079.2 |
| 20260506112403 | 23 | 100 | 8.0 | 17.7 | 0.00 | 0.00 | 0.00 | 44 | 1079.5 |
| 20260506112305 | 23 | 97 | 8.0 | 17.7 | 0.00 | 0.00 | 0.00 | 43 | 1079.5 |
| 20260506112218 | 23 | 96 | 8.0 | 17.7 | 0.00 | 0.00 | 0.00 | 42 | 1079.5 |
| 20260506112203 | 23 | 96 | 8.0 | 17.7 | 0.00 | 0.00 | 0.00 | 42 | 1079.4 |
| 20260506112103 | 23 | 96 | 8.0 | 17.7 | 0.00 | 0.00 | 0.00 | 43 | 1079.6 |
| 20260506111903 | 23 | 101 | 8.0 | 17.7 | 0.00 | 0.00 | 0.00 | 42 | 1079.2 |
| 20260506111803 | 23 | 104 | 8.0 | 17.7 | 0.00 | 0.00 | 0.00 | 43 | 1079.5 |
| 20260506111703 | 23 | 104 | 8.0 | 17.7 | 0.00 | 0.00 | 0.00 | 42 | 1079.4 |
| 20260506111603 | 23 | 105 | 9.7 | 17.7 | 0.00 | 0.00 | 0.00 | 43 | 1079.5 |
| 20260506111503 | 23 | 109 | 8.0 | 17.7 | 0.00 | 0.00 | 0.00 | 43 | 1079.4 |
| 20260506111403 | 23 | 111 | 8.0 | 17.7 | 0.00 | 0.00 | 0.00 | 42 | 1079.5 |
| 20260506111303 | 23 | 112 | 8.0 | 17.7 | 0.00 | 0.00 | 0.00 | 43 | 1079.5 |
| 20260506111203 | 23 | 113 | 9.7 | 17.7 | 0.00 | 0.00 | 0.00 | 44 | 1079.6 |
| 20260506111103 | 23 | 116 | 9.7 | 17.7 | 0.00 | 0.00 | 0.00 | 43 | 1079.5 |
| 20260506111017 | 23 | 115 | 9.7 | 17.7 | 0.00 | 0.00 | 0.00 | 44 | 1079.5 |
| 20260506111003 | 23 | 115 | 9.7 | 17.7 | 0.00 | 0.00 | 0.00 | 44 | 1079.7 |
| 20260506110918 | 23 | 117 | 9.7 | 17.7 | 0.00 | 0.00 | 0.00 | 44 | 1079.7 |
| 20260506110903 | 23 | 116 | 9.7 | 17.7 | 0.00 | 0.00 | 0.00 | 44 | 1079.5 |
| 20260506110603 | 24 | 116 | 11.3 | 24.1 | 0.00 | 0.00 | 0.00 | 42 | 1079.2 |
| 20260506110503 | 24 | 114 | 11.3 | 24.1 | 0.00 | 0.00 | 0.00 | 42 | 1079.8 |
| 20260506110403 | 24 | 116 | 11.3 | 24.1 | 0.00 | 0.00 | 0.00 | 42 | 1079.5 |
| 20260506110303 | 24 | 119 | 11.3 | 24.1 | 0.00 | 0.00 | 0.00 | 42 | 1079.5 |
| 20260506110203 | 25 | 119 | 11.3 | 24.1 | 0.00 | 0.00 | 0.00 | 42 | 1079.5 |
| 20260506110117 | 25 | 116 | 11.3 | 24.1 | 0.00 | 0.00 | 0.00 | 42 | 1079.5 |
| 20260506110103 | 25 | 117 | 11.3 | 24.1 | 0.00 | 0.00 | 0.00 | 42 | 1079.5 |
| 20260506110003 | 25 | 116 | 11.3 | 24.1 | 0.00 | 0.00 | 0.00 | 42 | 1079.8 |
| 20260506105803 | 25 | 119 | 11.3 | 24.1 | 0.00 | 0.00 | 0.00 | 41 | 1079.4 |
| 20260506105717 | 25 | 120 | 11.3 | 24.1 | 0.00 | 0.00 | 0.00 | 42 | 1079.4 |
| 20260506105703 | 25 | 120 | 11.3 | 24.1 | 0.00 | 0.00 | 0.00 | 42 | 1079.5 |
| 20260506105603 | 25 | 120 | 9.7 | 24.1 | 0.00 | 0.00 | 0.00 | 42 | 1079.7 |
| 20260506105403 | 25 | 112 | 9.7 | 22.5 | 0.00 | 0.00 | 0.00 | 43 | 1079.6 |
| 20260506105305 | 25 | 106 | 8.0 | 22.5 | 0.00 | 0.00 | 0.00 | 43 | 1079.3 |
| 20260506105203 | 25 | 99 | 8.0 | 22.5 | 0.00 | 0.00 | 0.00 | 44 | 1079.7 |
| 20260506105103 | 24 | 100 | 8.0 | 16.1 | 0.00 | 0.00 | 0.00 | 44 | 1079.7 |
| 20260506105003 | 24 | 102 | 8.0 | 16.1 | 0.00 | 0.00 | 0.00 | 43 | 1079.6 |
| 20260506104903 | 24 | 103 | 6.4 | 16.1 | 0.00 | 0.00 | 0.00 | 43 | 1079.7 |
| 20260506104803 | 24 | 107 | 8.0 | 20.9 | 0.00 | 0.00 | 0.00 | 43 | 1079.9 |
| 20260506104703 | 24 | 108 | 8.0 | 20.9 | 0.00 | 0.00 | 0.00 | 43 | 1079.4 |
| 20260506104618 | 24 | 111 | 8.0 | 20.9 | 0.00 | 0.00 | 0.00 | 43 | 1079.4 |
| 20260506104603 | 24 | 111 | 8.0 | 20.9 | 0.00 | 0.00 | 0.00 | 43 | 1079.8 |
| 20260506104503 | 24 | 110 | 8.0 | 22.5 | 0.00 | 0.00 | 0.00 | 43 | 1079.6 |
| 20260506104303 | 24 | 112 | 9.7 | 25.7 | 0.00 | 0.00 | 0.00 | 44 | 1079.7 |
| 20260506104203 | 24 | 115 | 9.7 | 25.7 | 0.00 | 0.00 | 0.00 | 44 | 1079.6 |
| 20260506104103 | 24 | 118 | 9.7 | 25.7 | 0.00 | 0.00 | 0.00 | 44 | 1079.7 |
| 20260506104003 | 24 | 114 | 9.7 | 25.7 | 0.00 | 0.00 | 0.00 | 44 | 1079.6 |
| 20260506103903 | 24 | 112 | 9.7 | 25.7 | 0.00 | 0.00 | 0.00 | 44 | 1079.7 |
| 20260506103803 | 24 | 108 | 9.7 | 25.7 | 0.00 | 0.00 | 0.00 | 44 | 1079.6 |
| 20260506103703 | 24 | 102 | 9.7 | 25.7 | 0.00 | 0.00 | 0.00 | 45 | 1079.5 |
| 20260506103618 | 23 | 100 | 9.7 | 25.7 | 0.00 | 0.00 | 0.00 | 45 | 1079.5 |
| 20260506103603 | 23 | 99 | 9.7 | 25.7 | 0.00 | 0.00 | 0.00 | 45 | 1079.8 |
| 20260506103503 | 23 | 101 | 9.7 | 25.7 | 0.00 | 0.00 | 0.00 | 45 | 1079.7 |
| 20260506103303 | 23 | 106 | 9.7 | 22.5 | 0.00 | 0.00 | 0.00 | 47 | 1079.7 |
| 20260506103203 | 23 | 103 | 8.0 | 22.5 | 0.00 | 0.00 | 0.00 | 47 | 1079.8 |
| 20260506103103 | 23 | 102 | 8.0 | 22.5 | 0.00 | 0.00 | 0.00 | 46 | 1079.6 |
| 20260506103003 | 23 | 104 | 8.0 | 22.5 | 0.00 | 0.00 | 0.00 | 47 | 1079.8 |
| 20260506102903 | 23 | 107 | 8.0 | 22.5 | 0.00 | 0.00 | 0.00 | 46 | 1079.6 |
| 20260506102803 | 23 | 104 | 8.0 | 22.5 | 0.00 | 0.00 | 0.00 | 47 | 1079.8 |
| 20260506102703 | 23 | 108 | 8.0 | 22.5 | 0.00 | 0.00 | 0.00 | 46 | 1079.7 |
| 20260506102603 | 23 | 110 | 8.0 | 22.5 | 0.00 | 0.00 | 0.00 | 46 | 1080.0 |
| 20260506102518 | 23 | 112 | 6.4 | 17.7 | 0.00 | 0.00 | 0.00 | 46 | 1080.0 |
| 20260506102503 | 23 | 113 | 6.4 | 17.7 | 0.00 | 0.00 | 0.00 | 46 | 1079.9 |
| 20260506102403 | 23 | 117 | 6.4 | 17.7 | 0.00 | 0.00 | 0.00 | 47 | 1079.6 |
| 20260506102203 | 23 | 126 | 6.4 | 17.7 | 0.00 | 0.00 | 0.00 | 48 | 1079.8 |
| 20260506102117 | 22 | 125 | 6.4 | 17.7 | 0.00 | 0.00 | 0.00 | 47 | 1079.8 |
| 20260506102104 | 22 | 126 | 6.4 | 17.7 | 0.00 | 0.00 | 0.00 | 47 | 1079.8 |
| 20260506102003 | 22 | 134 | 6.4 | 17.7 | 0.00 | 0.00 | 0.00 | 47 | 1079.8 |
| 20260506101803 | 22 | 141 | 6.4 | 16.1 | 0.00 | 0.00 | 0.00 | 46 | 1079.6 |
| 20260506101703 | 22 | 146 | 6.4 | 16.1 | 0.00 | 0.00 | 0.00 | 46 | 1079.6 |
| 20260506101617 | 22 | 147 | 8.0 | 20.9 | 0.00 | 0.00 | 0.00 | 47 | 1079.6 |
| 20260506101603 | 22 | 145 | 8.0 | 20.9 | 0.00 | 0.00 | 0.00 | 47 | 1079.5 |
| 20260506101503 | 22 | 139 | 8.0 | 20.9 | 0.00 | 0.00 | 0.00 | 47 | 1079.5 |
| 20260506101303 | 22 | 127 | 8.0 | 20.9 | 0.00 | 0.00 | 0.00 | 46 | 1079.4 |
| 20260506101203 | 22 | 118 | 8.0 | 20.9 | 0.00 | 0.00 | 0.00 | 47 | 1079.7 |
| 20260506101103 | 22 | 118 | 8.0 | 20.9 | 0.00 | 0.00 | 0.00 | 46 | 1079.4 |
| 20260506101003 | 23 | 120 | 9.7 | 20.9 | 0.00 | 0.00 | 0.00 | 45 | 1079.7 |
| 20260506100903 | 23 | 118 | 9.7 | 20.9 | 0.00 | 0.00 | 0.00 | 45 | 1079.7 |
| 20260506100803 | 23 | 116 | 9.7 | 20.9 | 0.00 | 0.00 | 0.00 | 45 | 1079.8 |
| 20260506100703 | 23 | 110 | 9.7 | 20.9 | 0.00 | 0.00 | 0.00 | 45 | 1079.7 |
| 20260506100603 | 23 | 109 | 9.7 | 20.9 | 0.00 | 0.00 | 0.00 | 45 | 1079.7 |
| 20260506100503 | 23 | 119 | 9.7 | 25.7 | 0.00 | 0.00 | 0.00 | 45 | 1079.6 |
| 20260506100403 | 23 | 130 | 9.7 | 25.7 | 0.00 | 0.00 | 0.00 | 45 | 1079.9 |
| 20260506100303 | 24 | 132 | 9.7 | 25.7 | 0.00 | 0.00 | 0.00 | 45 | 1079.8 |
| 20260506100203 | 23 | 139 | 8.0 | 25.7 | 0.00 | 0.00 | 0.00 | 46 | 1079.8 |
| 20260506100004 | 23 | 145 | 8.0 | 25.7 | 0.00 | 0.00 | 0.00 | 46 | 1079.8 |
| 20260506095903 | 23 | 148 | 8.0 | 25.7 | 0.00 | 0.00 | 0.00 | 46 | 1080.0 |
| 20260506095803 | 23 | 151 | 8.0 | 25.7 | 0.00 | 0.00 | 0.00 | 44 | 1079.9 |
| 20260506095703 | 23 | 157 | 6.4 | 25.7 | 0.00 | 0.00 | 0.00 | 44 | 1080.1 |
| 20260506095603 | 23 | 155 | 6.4 | 25.7 | 0.00 | 0.00 | 0.00 | 44 | 1079.7 |
| 20260506095503 | 23 | 150 | 6.4 | 25.7 | 0.00 | 0.00 | 0.00 | 45 | 1079.6 |
| 20260506095403 | 23 | 144 | 6.4 | 16.1 | 0.00 | 0.00 | 0.00 | 46 | 1079.9 |
| 20260506095317 | 23 | 142 | 6.4 | 16.1 | 0.00 | 0.00 | 0.00 | 45 | 1079.9 |
| 20260506095305 | 23 | 144 | 6.4 | 16.1 | 0.00 | 0.00 | 0.00 | 45 | 1079.7 |
| 20260506095203 | 23 | 139 | 6.4 | 16.1 | 0.00 | 0.00 | 0.00 | 45 | 1079.6 |
| 20260506095003 | 23 | 119 | 6.4 | 16.1 | 0.00 | 0.00 | 0.00 | 46 | 1080.0 |
| 20260506094903 | 23 | 116 | 6.4 | 16.1 | 0.00 | 0.00 | 0.00 | 45 | 1079.5 |
| 20260506094803 | 23 | 117 | 8.0 | 22.5 | 0.00 | 0.00 | 0.00 | 45 | 1079.8 |
| 20260506094703 | 23 | 114 | 8.0 | 22.5 | 0.00 | 0.00 | 0.00 | 45 | 1079.9 |
| 20260506094603 | 24 | 109 | 8.0 | 22.5 | 0.00 | 0.00 | 0.00 | 45 | 1079.8 |
| 20260506094503 | 23 | 106 | 8.0 | 22.5 | 0.00 | 0.00 | 0.00 | 47 | 1080.0 |
| 20260506094403 | 23 | 106 | 8.0 | 22.5 | 0.00 | 0.00 | 0.00 | 46 | 1079.9 |
| 20260506094303 | 23 | 110 | 8.0 | 22.5 | 0.00 | 0.00 | 0.00 | 48 | 1080.0 |
| 20260506094203 | 23 | 115 | 8.0 | 22.5 | 0.00 | 0.00 | 0.00 | 47 | 1080.0 |
| 20260506094103 | 23 | 121 | 8.0 | 22.5 | 0.00 | 0.00 | 0.00 | 47 | 1079.8 |
| 20260506094003 | 23 | 133 | 6.4 | 22.5 | 0.00 | 0.00 | 0.00 | 46 | 1080.0 |
| 20260506093903 | 23 | 137 | 6.4 | 22.5 | 0.00 | 0.00 | 0.00 | 47 | 1080.0 |
| 20260506093803 | 23 | 141 | 6.4 | 17.7 | 0.00 | 0.00 | 0.00 | 47 | 1079.8 |
| 20260506093703 | 23 | 145 | 6.4 | 17.7 | 0.00 | 0.00 | 0.00 | 48 | 1079.8 |
| 20260506093617 | 22 | 153 | 4.8 | 12.9 | 0.00 | 0.00 | 0.00 | 49 | 1079.8 |
| 20260506093603 | 22 | 153 | 4.8 | 12.9 | 0.00 | 0.00 | 0.00 | 49 | 1079.8 |
| 20260506093503 | 22 | 147 | 6.4 | 14.5 | 0.00 | 0.00 | 0.00 | 49 | 1080.0 |
| 20260506093417 | 22 | 135 | 6.4 | 16.1 | 0.00 | 0.00 | 0.00 | 48 | 1080.0 |
| 20260506093303 | 23 | 129 | 6.4 | 16.1 | 0.00 | 0.00 | 0.00 | 47 | 1080.0 |
| 20260506093103 | 23 | 118 | 8.0 | 16.1 | 0.00 | 0.00 | 0.00 | 48 | 1079.8 |
| 20260506093003 | 23 | 115 | 8.0 | 16.1 | 0.00 | 0.00 | 0.00 | 47 | 1079.9 |
| 20260506092903 | 23 | 114 | 8.0 | 16.1 | 0.00 | 0.00 | 0.00 | 47 | 1079.9 |
| 20260506092803 | 23 | 110 | 8.0 | 16.1 | 0.00 | 0.00 | 0.00 | 47 | 1079.9 |
| 20260506092717 | 23 | 112 | 8.0 | 16.1 | 0.00 | 0.00 | 0.00 | 47 | 1079.9 |
| 20260506092703 | 23 | 112 | 8.0 | 16.1 | 0.00 | 0.00 | 0.00 | 47 | 1079.9 |
| 20260506092603 | 23 | 110 | 9.7 | 16.1 | 0.00 | 0.00 | 0.00 | 47 | 1079.7 |
| 20260506092403 | 23 | 111 | 9.7 | 24.1 | 0.00 | 0.00 | 0.00 | 47 | 1080.0 |
| 20260506092317 | 23 | 112 | 9.7 | 24.1 | 0.00 | 0.00 | 0.00 | 47 | 1080.0 |
| 20260506092305 | 23 | 112 | 9.7 | 24.1 | 0.00 | 0.00 | 0.00 | 47 | 1079.8 |
| 20260506092217 | 23 | 111 | 9.7 | 24.1 | 0.00 | 0.00 | 0.00 | 47 | 1079.8 |
| 20260506092203 | 23 | 111 | 9.7 | 24.1 | 0.00 | 0.00 | 0.00 | 48 | 1080.0 |
| 20260506091903 | 23 | 109 | 11.3 | 24.1 | 0.00 | 0.00 | 0.00 | 47 | 1079.9 |
| 20260506091803 | 23 | 111 | 11.3 | 24.1 | 0.00 | 0.00 | 0.00 | 47 | 1079.7 |
| 20260506091703 | 23 | 111 | 11.3 | 24.1 | 0.00 | 0.00 | 0.00 | 46 | 1080.0 |
| 20260506091603 | 23 | 113 | 9.7 | 24.1 | 0.00 | 0.00 | 0.00 | 47 | 1079.8 |
| 20260506091518 | 23 | 116 | 9.7 | 24.1 | 0.00 | 0.00 | 0.00 | 48 | 1079.8 |
| 20260506091503 | 23 | 116 | 9.7 | 24.1 | 0.00 | 0.00 | 0.00 | 48 | 1079.7 |
| 20260506091403 | 23 | 120 | 9.7 | 20.9 | 0.00 | 0.00 | 0.00 | 49 | 1079.8 |
| 20260506091317 | 22 | 118 | 9.7 | 20.9 | 0.00 | 0.00 | 0.00 | 49 | 1079.8 |
| 20260506091203 | 22 | 119 | 8.0 | 16.1 | 0.00 | 0.00 | 0.00 | 49 | 1079.8 |
| 20260506091017 | 22 | 116 | 8.0 | 16.1 | 0.00 | 0.00 | 0.00 | 49 | 1079.7 |
| 20260506091003 | 22 | 117 | 8.0 | 16.1 | 0.00 | 0.00 | 0.00 | 49 | 1079.9 |
| 20260506090918 | 22 | 116 | 8.0 | 16.1 | 0.00 | 0.00 | 0.00 | 50 | 1079.9 |
| 20260506090903 | 22 | 117 | 8.0 | 16.1 | 0.00 | 0.00 | 0.00 | 50 | 1079.8 |
| 20260506090617 | 22 | 117 | 6.4 | 16.1 | 0.00 | 0.00 | 0.00 | 51 | 1080.0 |
| 20260506090603 | 22 | 117 | 6.4 | 16.1 | 0.00 | 0.00 | 0.00 | 51 | 1079.9 |
| 20260506090503 | 22 | 116 | 4.8 | 16.1 | 0.00 | 0.00 | 0.00 | 51 | 1079.8 |
| 20260506090418 | 22 | 113 | 4.8 | 14.5 | 0.00 | 0.00 | 0.00 | 51 | 1079.8 |
| 20260506090303 | 21 | 123 | 4.8 | 16.1 | 0.00 | 0.00 | 0.00 | 53 | 1079.9 |
| 20260506090123 | 21 | 135 | 4.8 | 16.1 | 0.00 | 0.00 | 0.00 | 53 | 1079.8 |
| 20260506090006 | 21 | 142 | 4.8 | 16.1 | 0.00 | 0.00 | 0.00 | 52 | 1079.9 |
| 20260506085803 | 21 | 164 | 6.4 | 16.1 | 0.00 | 0.00 | 0.00 | 52 | 1079.7 |
| 20260506085722 | 21 | 167 | 6.4 | 16.1 | 0.00 | 0.00 | 0.00 | 52 | 1079.7 |
| 20260506085428 | 21 | 172 | 6.4 | 16.1 | 0.00 | 0.00 | 0.00 | 50 | 1079.9 |
| 20260506085329 | 21 | 169 | 6.4 | 16.1 | 0.00 | 0.00 | 0.00 | 50 | 1079.7 |
| 20260506085203 | 21 | 159 | 6.4 | 16.1 | 0.00 | 0.00 | 0.00 | 49 | 1079.9 |
| 20260506085118 | 22 | 160 | 6.4 | 16.1 | 0.00 | 0.00 | 0.00 | 48 | 1079.9 |
| 20260506085103 | 22 | 161 | 6.4 | 16.1 | 0.00 | 0.00 | 0.00 | 48 | 1080.0 |
| 20260506085016 | 22 | 162 | 6.4 | 16.1 | 0.00 | 0.00 | 0.00 | 48 | 1080.0 |
| 20260506085003 | 22 | 160 | 6.4 | 16.1 | 0.00 | 0.00 | 0.00 | 48 | 1079.6 |
| 20260506084703 | 22 | 154 | 4.8 | 16.1 | 0.00 | 0.00 | 0.00 | 49 | 1079.7 |
| 20260506084603 | 22 | 147 | 4.8 | 16.1 | 0.00 | 0.00 | 0.00 | 50 | 1079.8 |
| 20260506084503 | 22 | 145 | 4.8 | 12.9 | 0.00 | 0.00 | 0.00 | 51 | 1079.8 |
| 20260506084403 | 21 | 141 | 4.8 | 12.9 | 0.00 | 0.00 | 0.00 | 51 | 1079.6 |
| 20260506084303 | 21 | 149 | 4.8 | 11.3 | 0.00 | 0.00 | 0.00 | 52 | 1079.9 |
| 20260506084203 | 21 | 161 | 3.2 | 11.3 | 0.00 | 0.00 | 0.00 | 53 | 1079.9 |
| 20260506084118 | 21 | 160 | 3.2 | 11.3 | 0.00 | 0.00 | 0.00 | 53 | 1079.9 |
| 20260506084103 | 21 | 162 | 3.2 | 11.3 | 0.00 | 0.00 | 0.00 | 52 | 1079.9 |
| 20260506084003 | 21 | 168 | 4.8 | 11.3 | 0.00 | 0.00 | 0.00 | 53 | 1080.0 |
| 20260506083917 | 21 | 165 | 4.8 | 11.3 | 0.00 | 0.00 | 0.00 | 53 | 1080.0 |
| 20260506083803 | 20 | 154 | 4.8 | 11.3 | 0.00 | 0.00 | 0.00 | 57 | 1079.8 |
| 20260506083603 | 20 | 157 | 4.8 | 11.3 | 0.00 | 0.00 | 0.00 | 57 | 1079.8 |
| 20260506083503 | 20 | 158 | 4.8 | 11.3 | 0.00 | 0.00 | 0.00 | 56 | 1079.8 |
| 20260506083403 | 20 | 163 | 4.8 | 11.3 | 0.00 | 0.00 | 0.00 | 56 | 1079.7 |
| 20260506083317 | 19 | 165 | 4.8 | 11.3 | 0.00 | 0.00 | 0.00 | 56 | 1080.2 |
| 20260506083303 | 19 | 166 | 4.8 | 12.9 | 0.00 | 0.00 | 0.00 | 56 | 1080.2 |
| 20260506083017 | 19 | 159 | 4.8 | 12.9 | 0.00 | 0.00 | 0.00 | 56 | 1080.2 |
| 20260506083003 | 19 | 158 | 4.8 | 12.9 | 0.00 | 0.00 | 0.00 | 56 | 1080.2 |
| 20260506082903 | 19 | 161 | 4.8 | 12.9 | 0.00 | 0.00 | 0.00 | 55 | 1080.1 |
| 20260506082703 | 20 | 166 | 4.8 | 12.9 | 0.00 | 0.00 | 0.00 | 54 | 1079.9 |
| 20260506082603 | 20 | 173 | 4.8 | 12.9 | 0.00 | 0.00 | 0.00 | 54 | 1079.8 |
| 20260506082503 | 20 | 183 | 6.4 | 12.9 | 0.00 | 0.00 | 0.00 | 53 | 1080.0 |
| 20260506082403 | 20 | 179 | 6.4 | 16.1 | 0.00 | 0.00 | 0.00 | 53 | 1079.9 |
| 20260506082305 | 20 | 176 | 6.4 | 16.1 | 0.00 | 0.00 | 0.00 | 53 | 1079.7 |
| 20260506082203 | 20 | 180 | 6.4 | 16.1 | 0.00 | 0.00 | 0.00 | 52 | 1080.0 |
| 20260506082103 | 20 | 180 | 6.4 | 16.1 | 0.00 | 0.00 | 0.00 | 52 | 1080.0 |
| 20260506082003 | 20 | 187 | 6.4 | 16.1 | 0.00 | 0.00 | 0.00 | 52 | 1079.8 |
| 20260506081903 | 20 | 187 | 6.4 | 16.1 | 0.00 | 0.00 | 0.00 | 51 | 1079.9 |
| 20260506081803 | 21 | 186 | 6.4 | 16.1 | 0.00 | 0.00 | 0.00 | 51 | 1079.9 |
| 20260506081703 | 21 | 181 | 6.4 | 16.1 | 0.00 | 0.00 | 0.00 | 51 | 1079.7 |
| 20260506081603 | 21 | 177 | 6.4 | 16.1 | 0.00 | 0.00 | 0.00 | 51 | 1080.1 |
| 20260506081503 | 21 | 173 | 6.4 | 16.1 | 0.00 | 0.00 | 0.00 | 52 | 1079.9 |
| 20260506081403 | 21 | 182 | 4.8 | 14.5 | 0.00 | 0.00 | 0.00 | 52 | 1079.8 |
| 20260506081303 | 21 | 188 | 4.8 | 14.5 | 0.00 | 0.00 | 0.00 | 53 | 1080.0 |
| 20260506081203 | 21 | 191 | 4.8 | 14.5 | 0.00 | 0.00 | 0.00 | 53 | 1080.0 |
| 20260506081103 | 21 | 190 | 4.8 | 14.5 | 0.00 | 0.00 | 0.00 | 53 | 1079.9 |
| 20260506081003 | 21 | 182 | 4.8 | 14.5 | 0.00 | 0.00 | 0.00 | 54 | 1079.8 |
| 20260506080903 | 20 | 181 | 4.8 | 14.5 | 0.00 | 0.00 | 0.00 | 54 | 1080.0 |
| 20260506080803 | 20 | 184 | 4.8 | 14.5 | 0.00 | 0.00 | 0.00 | 54 | 1079.9 |
| 20260506080703 | 20 | 188 | 4.8 | 14.5 | 0.00 | 0.00 | 0.00 | 54 | 1080.0 |
| 20260506080603 | 20 | 180 | 4.8 | 14.5 | 0.00 | 0.00 | 0.00 | 54 | 1079.9 |
| 20260506080503 | 20 | 173 | 4.8 | 11.3 | 0.00 | 0.00 | 0.00 | 56 | 1079.9 |
| 20260506080403 | 20 | 163 | 4.8 | 11.3 | 0.00 | 0.00 | 0.00 | 57 | 1080.0 |
| 20260506080316 | 20 | 155 | 4.8 | 11.3 | 0.00 | 0.00 | 0.00 | 57 | 1080.0 |
| 20260506080303 | 20 | 155 | 4.8 | 11.3 | 0.00 | 0.00 | 0.00 | 57 | 1079.7 |
| 20260506080203 | 19 | 156 | 4.8 | 11.3 | 0.00 | 0.00 | 0.00 | 58 | 1079.8 |
| 20260506073403 | 18 | 231 | 3.2 | 11.3 | 0.00 | 0.00 | 0.00 | 57 | 1079.9 |
| 20260506073303 | 19 | 228 | 3.2 | 11.3 | 0.00 | 0.00 | 0.00 | 57 | 1079.8 |
| 20260506073203 | 19 | 224 | 3.2 | 11.3 | 0.00 | 0.00 | 0.00 | 56 | 1079.8 |
| 20260506073103 | 19 | 218 | 3.2 | 9.7 | 0.00 | 0.00 | 0.00 | 56 | 1080.0 |
| 20260506073003 | 20 | 229 | 3.2 | 9.7 | 0.00 | 0.00 | 0.00 | 56 | 1080.1 |
| 20260506072903 | 20 | 234 | 3.2 | 9.7 | 0.00 | 0.00 | 0.00 | 55 | 1079.9 |
| 20260506072803 | 20 | 239 | 3.2 | 11.3 | 0.00 | 0.00 | 0.00 | 55 | 1079.7 |
| 20260506072718 | 20 | 241 | 3.2 | 11.3 | 0.00 | 0.00 | 0.00 | 54 | 1079.7 |
| 20260506072703 | 20 | 241 | 3.2 | 11.3 | 0.00 | 0.00 | 0.00 | 54 | 1079.9 |
| 20260506072603 | 20 | 238 | 3.2 | 11.3 | 0.00 | 0.00 | 0.00 | 54 | 1079.9 |
| 20260506072403 | 20 | 233 | 3.2 | 11.3 | 0.00 | 0.00 | 0.00 | 55 | 1080.0 |
| 20260506072305 | 20 | 235 | 3.2 | 11.3 | 0.00 | 0.00 | 0.00 | 55 | 1080.0 |
| 20260506072203 | 20 | 240 | 3.2 | 11.3 | 0.00 | 0.00 | 0.00 | 55 | 1079.7 |
| 20260506072103 | 20 | 240 | 3.2 | 11.3 | 0.00 | 0.00 | 0.00 | 55 | 1079.8 |
| 20260506072003 | 20 | 233 | 3.2 | 11.3 | 0.00 | 0.00 | 0.00 | 55 | 1079.9 |
| 20260506071917 | 20 | 226 | 3.2 | 11.3 | 0.00 | 0.00 | 0.00 | 55 | 1079.9 |
| 20260506071903 | 20 | 223 | 3.2 | 11.3 | 0.00 | 0.00 | 0.00 | 55 | 1080.0 |
| 20260506071803 | 20 | 219 | 3.2 | 11.3 | 0.00 | 0.00 | 0.00 | 55 | 1079.7 |
| 20260506071616 | 20 | 230 | 4.8 | 12.9 | 0.00 | 0.00 | 0.00 | 56 | 1080.0 |
| 20260506071603 | 20 | 235 | 4.8 | 12.9 | 0.00 | 0.00 | 0.00 | 58 | 1080.0 |
| 20260506071517 | 20 | 241 | 4.8 | 12.9 | 0.00 | 0.00 | 0.00 | 58 | 1080.0 |
| 20260506071503 | 20 | 243 | 4.8 | 12.9 | 0.00 | 0.00 | 0.00 | 57 | 1079.9 |
| 20260506071203 | 20 | 248 | 6.4 | 17.7 | 0.00 | 0.00 | 0.00 | 58 | 1079.8 |
| 20260506071103 | 19 | 247 | 6.4 | 17.7 | 0.00 | 0.00 | 0.00 | 58 | 1079.8 |
| 20260506071003 | 19 | 245 | 6.4 | 17.7 | 0.00 | 0.00 | 0.00 | 58 | 1079.8 |
| 20260506070903 | 19 | 246 | 6.4 | 17.7 | 0.00 | 0.00 | 0.00 | 57 | 1079.9 |
| 20260506070803 | 19 | 248 | 6.4 | 17.7 | 0.00 | 0.00 | 0.00 | 58 | 1079.9 |
| 20260506070703 | 19 | 251 | 6.4 | 17.7 | 0.00 | 0.00 | 0.00 | 58 | 1079.8 |
| 20260506070603 | 19 | 248 | 6.4 | 17.7 | 0.00 | 0.00 | 0.00 | 58 | 1079.8 |
| 20260506070503 | 19 | 247 | 6.4 | 17.7 | 0.00 | 0.00 | 0.00 | 57 | 1079.9 |
| 20260506070403 | 19 | 244 | 4.8 | 17.7 | 0.00 | 0.00 | 0.00 | 58 | 1079.8 |
| 20260506070303 | 20 | 243 | 4.8 | 17.7 | 0.00 | 0.00 | 0.00 | 58 | 1080.0 |
| 20260506070203 | 20 | 235 | 4.8 | 12.9 | 0.00 | 0.00 | 0.00 | 58 | 1079.8 |
| 20260506070103 | 20 | 239 | 4.8 | 12.9 | 0.00 | 0.00 | 0.00 | 58 | 1080.0 |
| 20260506062503 | 17 | 179 | 1.6 | 9.7 | 0.00 | 0.00 | 0.00 | 67 | 1079.9 |
| 20260506062403 | 17 | 191 | 1.6 | 9.7 | 0.00 | 0.00 | 0.00 | 68 | 1079.7 |
| 20260506062305 | 17 | 215 | 1.6 | 6.4 | 0.00 | 0.00 | 0.00 | 68 | 1079.7 |
| 20260506062203 | 17 | 220 | 1.6 | 6.4 | 0.00 | 0.00 | 0.00 | 69 | 1079.8 |
| 20260506062103 | 17 | 256 | 1.6 | 9.7 | 0.00 | 0.00 | 0.00 | 70 | 1079.5 |
| 20260506062003 | 16 | 286 | 1.6 | 9.7 | 0.00 | 0.00 | 0.00 | 71 | 1079.6 |
| 20260506061903 | 16 | 277 | 1.6 | 9.7 | 0.00 | 0.00 | 0.00 | 72 | 1079.7 |
| 20260506061803 | 16 | 270 | 1.6 | 9.7 | 0.00 | 0.00 | 0.00 | 75 | 1079.7 |
| 20260506061717 | 16 | 260 | 3.2 | 9.7 | 0.00 | 0.00 | 0.00 | 74 | 1079.7 |
| 20260506061703 | 16 | 259 | 3.2 | 9.7 | 0.00 | 0.00 | 0.00 | 74 | 1079.7 |
| 20260506061603 | 15 | 259 | 3.2 | 9.7 | 0.00 | 0.00 | 0.00 | 75 | 1079.6 |
| 20260506061403 | 15 | 258 | 4.8 | 11.3 | 0.00 | 0.00 | 0.00 | 75 | 1079.4 |
| 20260506061318 | 15 | 256 | 4.8 | 11.3 | 0.00 | 0.00 | 0.00 | 75 | 1079.4 |
| 20260506061303 | 15 | 256 | 4.8 | 11.3 | 0.00 | 0.00 | 0.00 | 75 | 1079.5 |
| 20260506061203 | 15 | 260 | 4.8 | 11.3 | 0.00 | 0.00 | 0.00 | 75 | 1079.5 |
| 20260506061117 | 15 | 254 | 4.8 | 11.3 | 0.00 | 0.00 | 0.00 | 75 | 1079.5 |
| 20260506061003 | 15 | 251 | 4.8 | 11.3 | 0.00 | 0.00 | 0.00 | 75 | 1079.6 |
| 20260506060817 | 15 | 245 | 3.2 | 11.3 | 0.00 | 0.00 | 0.00 | 76 | 1079.6 |
| 20260506060803 | 15 | 243 | 3.2 | 11.3 | 0.00 | 0.00 | 0.00 | 76 | 1079.5 |
| 20260506060717 | 14 | 240 | 3.2 | 11.3 | 0.00 | 0.00 | 0.00 | 76 | 1079.5 |
| 20260506060703 | 14 | 239 | 3.2 | 11.3 | 0.00 | 0.00 | 0.00 | 76 | 1079.6 |
| 20260506060403 | 14 | 203 | 3.2 | 12.9 | 0.00 | 0.00 | 0.00 | 77 | 1079.6 |
| 20260506060303 | 14 | 202 | 3.2 | 12.9 | 0.00 | 0.00 | 0.00 | 77 | 1079.6 |
| 20260506060204 | 14 | 197 | 3.2 | 12.9 | 0.00 | 0.00 | 0.00 | 78 | 1079.8 |
| 20260506051403 | 13 | 237 | 4.8 | 12.9 | 0.00 | 0.00 | 0.00 | 83 | 1079.5 |
| 20260506051203 | 13 | 241 | 4.8 | 11.3 | 0.00 | 0.00 | 0.00 | 83 | 1079.6 |
| 20260506051103 | 13 | 237 | 4.8 | 11.3 | 0.00 | 0.00 | 0.00 | 83 | 1079.6 |
| 20260506051003 | 13 | 235 | 3.2 | 11.3 | 0.00 | 0.00 | 0.00 | 83 | 1079.5 |
| 20260506050903 | 13 | 235 | 3.2 | 11.3 | 0.00 | 0.00 | 0.00 | 83 | 1079.5 |
| 20260506050803 | 13 | 231 | 3.2 | 11.3 | 0.00 | 0.00 | 0.00 | 83 | 1079.5 |
| 20260506050703 | 13 | 230 | 3.2 | 11.3 | 0.00 | 0.00 | 0.00 | 83 | 1079.6 |
| 20260506050603 | 13 | 226 | 3.2 | 11.3 | 0.00 | 0.00 | 0.00 | 83 | 1079.3 |
| 20260506050503 | 13 | 215 | 3.2 | 6.4 | 0.00 | 0.00 | 0.00 | 83 | 1079.4 |
| 20260506050403 | 13 | 207 | 1.6 | 6.4 | 0.00 | 0.00 | 0.00 | 83 | 1079.5 |
| 20260506050303 | 13 | 196 | 1.6 | 6.4 | 0.00 | 0.00 | 0.00 | 83 | 1079.2 |
| 20260506050203 | 13 | 189 | 1.6 | 4.8 | 0.00 | 0.00 | 0.00 | 84 | 1079.4 |
| 20260506050116 | 13 | 185 | 1.6 | 4.8 | 0.00 | 0.00 | 0.00 | 84 | 1079.6 |
| 20260506050103 | 13 | 183 | 1.6 | 4.8 | 0.00 | 0.00 | 0.00 | 84 | 1079.6 |
| 20260506045103 | 14 | 196 | 1.6 | 4.8 | 0.00 | 0.00 | 0.00 | 88 | 1079.2 |
| 20260506045003 | 14 | 193 | 1.6 | 4.8 | 0.00 | 0.00 | 0.00 | 89 | 1078.9 |
| 20260506044903 | 13 | 194 | 1.6 | 4.8 | 0.00 | 0.00 | 0.00 | 89 | 1079.2 |
| 20260506044803 | 13 | 193 | 1.6 | 6.4 | 0.00 | 0.00 | 0.00 | 89 | 1079.2 |
| 20260506044703 | 13 | 191 | 1.6 | 6.4 | 0.00 | 0.00 | 0.00 | 89 | 1079.4 |
| 20260506044603 | 13 | 182 | 1.6 | 6.4 | 0.00 | 0.00 | 0.00 | 90 | 1079.0 |
| 20260506044503 | 13 | 175 | 1.6 | 9.7 | 0.00 | 0.00 | 0.00 | 91 | 1079.2 |
| 20260506044403 | 13 | 176 | 1.6 | 9.7 | 0.00 | 0.00 | 0.00 | 91 | 1079.0 |
| 20260506044303 | 13 | 181 | 1.6 | 9.7 | 0.00 | 0.00 | 0.00 | 91 | 1079.0 |
| 20260506044203 | 13 | 184 | 3.2 | 9.7 | 0.00 | 0.00 | 0.00 | 91 | 1078.9 |
| 20260506044103 | 13 | 182 | 3.2 | 9.7 | 0.00 | 0.00 | 0.00 | 91 | 1078.8 |
| 20260506044003 | 12 | 180 | 3.2 | 9.7 | 0.00 | 0.00 | 0.00 | 92 | 1079.2 |
| 20260506043903 | 12 | 181 | 3.2 | 9.7 | 0.00 | 0.00 | 0.00 | 92 | 1079.2 |
| 20260506043803 | 12 | 181 | 3.2 | 9.7 | 0.00 | 0.00 | 0.00 | 91 | 1079.0 |
| 20260506043703 | 12 | 180 | 3.2 | 9.7 | 0.00 | 0.00 | 0.00 | 92 | 1078.9 |
| 20260506043617 | 12 | 185 | 3.2 | 9.7 | 0.00 | 0.00 | 0.00 | 93 | 1078.9 |
| 20260506043603 | 12 | 186 | 3.2 | 9.7 | 0.00 | 0.00 | 0.00 | 93 | 1079.2 |
| 20260506043503 | 12 | 189 | 3.2 | 9.7 | 0.00 | 0.00 | 0.00 | 93 | 1079.0 |
| 20260506043417 | 12 | 187 | 3.2 | 6.4 | 0.00 | 0.00 | 0.00 | 93 | 1079.0 |
| 20260506043303 | 12 | 186 | 3.2 | 6.4 | 0.00 | 0.00 | 0.00 | 93 | 1079.0 |
| 20260506043103 | 11 | 189 | 1.6 | 6.4 | 0.00 | 0.00 | 0.00 | 93 | 1079.0 |
| 20260506043003 | 11 | 193 | 1.6 | 6.4 | 0.00 | 0.00 | 0.00 | 93 | 1079.0 |
| 20260506042903 | 11 | 194 | 1.6 | 6.4 | 0.00 | 0.00 | 0.00 | 93 | 1078.8 |
| 20260506042818 | 11 | 190 | 1.6 | 6.4 | 0.00 | 0.00 | 0.00 | 93 | 1078.8 |
| 20260506042803 | 11 | 188 | 1.6 | 6.4 | 0.00 | 0.00 | 0.00 | 93 | 1079.2 |
| 20260506042703 | 11 | 185 | 1.6 | 6.4 | 0.00 | 0.00 | 0.00 | 93 | 1079.2 |
| 20260506042503 | 11 | 178 | 1.6 | 4.8 | 0.00 | 0.00 | 0.00 | 93 | 1078.7 |
| 20260506042417 | 11 | 188 | 1.6 | 4.8 | 0.00 | 0.00 | 0.00 | 93 | 1078.7 |
| 20260506042403 | 11 | 188 | 1.6 | 4.8 | 0.00 | 0.00 | 0.00 | 93 | 1078.8 |
| 20260506042305 | 11 | 179 | 1.6 | 4.8 | 0.00 | 0.00 | 0.00 | 93 | 1078.9 |
| 20260506042103 | 11 | 176 | 1.6 | 4.8 | 0.00 | 0.00 | 0.00 | 93 | 1078.9 |
| 20260506042003 | 11 | 174 | 1.6 | 4.8 | 0.00 | 0.00 | 0.00 | 93 | 1078.8 |
| 20260506041903 | 11 | 172 | 1.6 | 4.8 | 0.00 | 0.00 | 0.00 | 93 | 1079.0 |
| 20260506041803 | 11 | 178 | 1.6 | 4.8 | 0.00 | 0.00 | 0.00 | 93 | 1078.5 |
| 20260506041717 | 11 | 176 | 1.6 | 4.8 | 0.00 | 0.00 | 0.00 | 93 | 1078.5 |
| 20260506041703 | 11 | 176 | 1.6 | 4.8 | 0.00 | 0.00 | 0.00 | 93 | 1078.9 |
| 20260506041603 | 11 | 169 | 1.6 | 4.8 | 0.00 | 0.00 | 0.00 | 93 | 1078.9 |
| 20260506041518 | 11 | 169 | 1.6 | 4.8 | 0.00 | 0.00 | 0.00 | 94 | 1078.9 |
| 20260506041403 | 11 | 166 | 1.6 | 4.8 | 0.00 | 0.00 | 0.00 | 94 | 1078.9 |
| 20260506041218 | 11 | 161 | 1.6 | 4.8 | 0.00 | 0.00 | 0.00 | 93 | 1079.2 |
| 20260506041203 | 11 | 161 | 1.6 | 4.8 | 0.00 | 0.00 | 0.00 | 93 | 1078.7 |
| 20260506041103 | 11 | 160 | 1.6 | 4.8 | 0.00 | 0.00 | 0.00 | 93 | 1079.0 |
| 20260506040903 | 11 | 157 | 1.6 | 4.8 | 0.00 | 0.00 | 0.00 | 92 | 1078.8 |
| 20260506040803 | 11 | 151 | 1.6 | 4.8 | 0.00 | 0.00 | 0.00 | 92 | 1078.9 |
| 20260506040717 | 11 | 150 | 1.6 | 4.8 | 0.00 | 0.00 | 0.00 | 92 | 1078.9 |
| 20260506040703 | 11 | 151 | 1.6 | 4.8 | 0.00 | 0.00 | 0.00 | 92 | 1078.8 |
| 20260506040603 | 11 | 150 | 1.6 | 9.7 | 0.00 | 0.00 | 0.00 | 92 | 1078.6 |
| 20260506040403 | 11 | 142 | 1.6 | 9.7 | 0.00 | 0.00 | 0.00 | 92 | 1078.8 |
| 20260506040303 | 11 | 141 | 1.6 | 9.7 | 0.00 | 0.00 | 0.00 | 92 | 1078.7 |
| 20260506040203 | 11 | 141 | 1.6 | 9.7 | 0.00 | 0.00 | 0.00 | 92 | 1078.7 |
| 20260506040003 | 11 | 141 | 1.6 | 9.7 | 0.00 | 0.00 | 0.00 | 92 | 1078.6 |
| 20260506035903 | 11 | 140 | 1.6 | 9.7 | 0.00 | 0.00 | 0.00 | 92 | 1078.7 |
| 20260506035803 | 11 | 142 | 1.6 | 9.7 | 0.00 | 0.00 | 0.00 | 93 | 1078.6 |
| 20260506035703 | 11 | 147 | 3.2 | 9.7 | 0.00 | 0.00 | 0.00 | 92 | 1078.5 |
| 20260506035603 | 11 | 146 | 3.2 | 9.7 | 0.00 | 0.00 | 0.00 | 92 | 1078.6 |
| 20260506035503 | 11 | 149 | 1.6 | 4.8 | 0.00 | 0.00 | 0.00 | 92 | 1078.5 |
| 20260506035403 | 11 | 149 | 1.6 | 4.8 | 0.00 | 0.00 | 0.00 | 94 | 1078.6 |
| 20260506035305 | 11 | 154 | 3.2 | 4.8 | 0.00 | 0.00 | 0.00 | 92 | 1078.5 |
| 20260506035203 | 11 | 157 | 3.2 | 4.8 | 0.00 | 0.00 | 0.00 | 92 | 1078.5 |
| 20260506035103 | 11 | 163 | 3.2 | 4.8 | 0.00 | 0.00 | 0.00 | 91 | 1078.6 |
| 20260506035017 | 11 | 166 | 1.6 | 4.8 | 0.00 | 0.00 | 0.00 | 91 | 1078.6 |
| 20260506035003 | 11 | 167 | 1.6 | 4.8 | 0.00 | 0.00 | 0.00 | 91 | 1078.6 |
| 20260506034917 | 11 | 170 | 1.6 | 4.8 | 0.00 | 0.00 | 0.00 | 91 | 1078.6 |
| 20260506034903 | 11 | 169 | 1.6 | 4.8 | 0.00 | 0.00 | 0.00 | 91 | 1078.8 |
| 20260506034717 | 11 | 165 | 1.6 | 4.8 | 0.00 | 0.00 | 0.00 | 91 | 1078.6 |
| 20260506034603 | 11 | 170 | 1.6 | 4.8 | 0.00 | 0.00 | 0.00 | 91 | 1078.7 |
| 20260506034403 | 11 | 195 | 1.6 | 3.2 | 0.00 | 0.00 | 0.00 | 91 | 1078.6 |
| 20260506034303 | 11 | 188 | 0.0 | 3.2 | 0.00 | 0.00 | 0.00 | 91 | 1078.6 |
| 20260506034203 | 11 | 180 | 0.0 | 3.2 | 0.00 | 0.00 | 0.00 | 90 | 1078.4 |
| 20260506034118 | 11 | 171 | 0.0 | 3.2 | 0.00 | 0.00 | 0.00 | 90 | 1078.4 |
| 20260506034103 | 11 | 164 | 0.0 | 3.2 | 0.00 | 0.00 | 0.00 | 90 | 1078.6 |
| 20260506034003 | 11 | 157 | 0.0 | 3.2 | 0.00 | 0.00 | 0.00 | 90 | 1078.5 |
| 20260506033803 | 11 | 162 | 0.0 | 1.6 | 0.00 | 0.00 | 0.00 | 90 | 1078.3 |
| 20260506033703 | 11 | 153 | 0.0 | 1.6 | 0.00 | 0.00 | 0.00 | 90 | 1078.5 |
| 20260506033603 | 11 | 141 | 0.0 | 3.2 | 0.00 | 0.00 | 0.00 | 90 | 1078.5 |
| 20260506033503 | 11 | 139 | 0.0 | 3.2 | 0.00 | 0.00 | 0.00 | 90 | 1078.6 |
| 20260506033403 | 11 | 139 | 0.0 | 3.2 | 0.00 | 0.00 | 0.00 | 90 | 1078.5 |
| 20260506033303 | 11 | 141 | 0.0 | 3.2 | 0.00 | 0.00 | 0.00 | 90 | 1078.6 |
| 20260506033203 | 11 | 140 | 0.0 | 3.2 | 0.00 | 0.00 | 0.00 | 90 | 1078.2 |
| 20260506033103 | 11 | 139 | 1.6 | 3.2 | 0.00 | 0.00 | 0.00 | 90 | 1078.4 |
| 20260506033003 | 11 | 141 | 1.6 | 3.2 | 0.00 | 0.00 | 0.00 | 90 | 1078.5 |
| 20260506032903 | 11 | 139 | 1.6 | 4.8 | 0.00 | 0.00 | 0.00 | 90 | 1078.4 |
| 20260506032803 | 11 | 139 | 1.6 | 4.8 | 0.00 | 0.00 | 0.00 | 90 | 1078.5 |
| 20260506032703 | 11 | 142 | 1.6 | 4.8 | 0.00 | 0.00 | 0.00 | 90 | 1078.5 |
| 20260506032603 | 11 | 143 | 1.6 | 4.8 | 0.00 | 0.00 | 0.00 | 90 | 1078.5 |
| 20260506032503 | 11 | 144 | 1.6 | 4.8 | 0.00 | 0.00 | 0.00 | 90 | 1078.5 |
| 20260506032403 | 11 | 144 | 1.6 | 4.8 | 0.00 | 0.00 | 0.00 | 90 | 1078.6 |
| 20260506032305 | 11 | 143 | 1.6 | 4.8 | 0.00 | 0.00 | 0.00 | 90 | 1078.4 |
| 20260506032203 | 11 | 145 | 1.6 | 4.8 | 0.00 | 0.00 | 0.00 | 90 | 1078.4 |
| 20260506032103 | 11 | 147 | 0.0 | 4.8 | 0.00 | 0.00 | 0.00 | 90 | 1078.5 |
| 20260506032003 | 11 | 145 | 0.0 | 4.8 | 0.00 | 0.00 | 0.00 | 90 | 1078.5 |
| 20260506031903 | 11 | 153 | 0.0 | 1.6 | 0.00 | 0.00 | 0.00 | 90 | 1078.3 |
| 20260506031803 | 11 | 160 | 0.0 | 1.6 | 0.00 | 0.00 | 0.00 | 90 | 1078.5 |
| 20260506031703 | 11 | 141 | 0.0 | 1.6 | 0.00 | 0.00 | 0.00 | 90 | 1078.6 |
| 20260506031603 | 11 | 146 | 0.0 | 1.6 | 0.00 | 0.00 | 0.00 | 90 | 1078.7 |
| 20260506031503 | 11 | 0 | 0.0 | 0.0 | 0.00 | 0.00 | 0.00 | 90 | 1078.6 |
| 20260506031403 | 11 | 0 | 0.0 | 0.0 | 0.00 | 0.00 | 0.00 | 90 | 1078.5 |
| 20260506031303 | 11 | 0 | 0.0 | 0.0 | 0.00 | 0.00 | 0.00 | 90 | 1078.3 |
| 20260506031203 | 11 | 0 | 0.0 | 0.0 | 0.00 | 0.00 | 0.00 | 90 | 1078.4 |
| 20260506031118 | 12 | 0 | 0.0 | 0.0 | 0.00 | 0.00 | 0.00 | 90 | 1078.4 |
| 20260506031103 | 12 | 204 | 0.0 | 1.6 | 0.00 | 0.00 | 0.00 | 90 | 1078.5 |
| 20260506031003 | 12 | 210 | 0.0 | 1.6 | 0.00 | 0.00 | 0.00 | 90 | 1078.5 |
| 20260506030803 | 12 | 210 | 0.0 | 1.6 | 0.00 | 0.00 | 0.00 | 90 | 1078.8 |
| 20260506030703 | 12 | 210 | 0.0 | 1.6 | 0.00 | 0.00 | 0.00 | 90 | 1078.4 |
| 20260506030603 | 12 | 210 | 0.0 | 1.6 | 0.00 | 0.00 | 0.00 | 90 | 1078.6 |
| 20260506030503 | 12 | 210 | 0.0 | 1.6 | 0.00 | 0.00 | 0.00 | 90 | 1078.5 |
| 20260506030403 | 12 | 193 | 0.0 | 1.6 | 0.00 | 0.00 | 0.00 | 90 | 1078.3 |
| 20260506030303 | 12 | 161 | 0.0 | 4.8 | 0.00 | 0.00 | 0.00 | 90 | 1078.6 |
| 20260506030217 | 12 | 161 | 0.0 | 4.8 | 0.00 | 0.00 | 0.00 | 90 | 1078.6 |
| 20260506030203 | 12 | 161 | 0.0 | 4.8 | 0.00 | 0.00 | 0.00 | 90 | 1078.5 |
| 20260506030103 | 12 | 158 | 0.0 | 4.8 | 0.00 | 0.00 | 0.00 | 91 | 1078.7 |
| 20260506025903 | 12 | 174 | 0.0 | 4.8 | 0.00 | 0.00 | 0.00 | 91 | 1078.6 |
| 20260506025803 | 12 | 179 | 0.0 | 4.8 | 0.00 | 0.00 | 0.00 | 91 | 1078.5 |
| 20260506025703 | 12 | 183 | 0.0 | 4.8 | 0.00 | 0.00 | 0.00 | 91 | 1078.6 |
| 20260506025603 | 12 | 188 | 0.0 | 4.8 | 0.00 | 0.00 | 0.00 | 91 | 1078.7 |
| 20260506025503 | 12 | 188 | 1.6 | 4.8 | 0.00 | 0.00 | 0.00 | 91 | 1078.7 |
| 20260506025403 | 12 | 191 | 1.6 | 4.8 | 0.00 | 0.00 | 0.00 | 92 | 1078.7 |
| 20260506025305 | 12 | 203 | 1.6 | 3.2 | 0.00 | 0.00 | 0.00 | 91 | 1078.5 |
| 20260506025203 | 12 | 203 | 1.6 | 3.2 | 0.00 | 0.00 | 0.00 | 91 | 1078.8 |
| 20260506025103 | 12 | 205 | 1.6 | 3.2 | 0.00 | 0.00 | 0.00 | 91 | 1078.8 |
| 20260506025004 | 12 | 203 | 1.6 | 3.2 | 0.00 | 0.00 | 0.00 | 91 | 1078.6 |
| 20260506024903 | 12 | 200 | 1.6 | 3.2 | 0.00 | 0.00 | 0.00 | 91 | 1078.9 |
| 20260506024803 | 12 | 202 | 1.6 | 4.8 | 0.00 | 0.00 | 0.00 | 91 | 1078.6 |
| 20260506024703 | 12 | 202 | 1.6 | 6.4 | 0.00 | 0.00 | 0.00 | 91 | 1078.9 |
| 20260506024603 | 12 | 202 | 1.6 | 6.4 | 0.00 | 0.00 | 0.00 | 91 | 1078.7 |
| 20260506024503 | 12 | 206 | 1.6 | 6.4 | 0.00 | 0.00 | 0.00 | 91 | 1078.7 |
| 20260506024403 | 12 | 202 | 1.6 | 6.4 | 0.00 | 0.00 | 0.00 | 91 | 1078.4 |
| 20260506024303 | 12 | 199 | 1.6 | 6.4 | 0.00 | 0.00 | 0.00 | 92 | 1078.7 |
| 20260506024203 | 12 | 197 | 1.6 | 6.4 | 0.00 | 0.00 | 0.00 | 92 | 1078.7 |
| 20260506024103 | 12 | 190 | 1.6 | 6.4 | 0.00 | 0.00 | 0.00 | 92 | 1078.6 |
| 20260506023903 | 12 | 184 | 3.2 | 6.4 | 0.00 | 0.00 | 0.00 | 92 | 1078.8 |
| 20260506023803 | 12 | 184 | 3.2 | 6.4 | 0.00 | 0.00 | 0.00 | 92 | 1078.6 |
| 20260506023703 | 12 | 179 | 1.6 | 6.4 | 0.00 | 0.00 | 0.00 | 92 | 1078.6 |
| 20260506023503 | 12 | 170 | 1.6 | 6.4 | 0.00 | 0.00 | 0.00 | 92 | 1078.9 |
| 20260506023403 | 12 | 173 | 1.6 | 6.4 | 0.00 | 0.00 | 0.00 | 91 | 1078.4 |
| 20260506023203 | 11 | 176 | 1.6 | 6.4 | 0.00 | 0.00 | 0.00 | 91 | 1078.7 |
| 20260506023103 | 11 | 186 | 1.6 | 6.4 | 0.00 | 0.00 | 0.00 | 90 | 1078.7 |
| 20260506023003 | 11 | 196 | 1.6 | 3.2 | 0.00 | 0.00 | 0.00 | 90 | 1078.7 |
| 20260506022917 | 11 | 200 | 1.6 | 3.2 | 0.00 | 0.00 | 0.00 | 90 | 1078.7 |
| 20260506022903 | 11 | 200 | 1.6 | 3.2 | 0.00 | 0.00 | 0.00 | 90 | 1078.5 |
| 20260506022803 | 11 | 196 | 0.0 | 3.2 | 0.00 | 0.00 | 0.00 | 89 | 1078.9 |
| 20260506022603 | 11 | 196 | 0.0 | 3.2 | 0.00 | 0.00 | 0.00 | 89 | 1078.8 |
| 20260506022503 | 11 | 203 | 0.0 | 3.2 | 0.00 | 0.00 | 0.00 | 89 | 1078.4 |
| 20260506022403 | 11 | 205 | 0.0 | 3.2 | 0.00 | 0.00 | 0.00 | 88 | 1078.6 |
| 20260506022305 | 11 | 205 | 0.0 | 3.2 | 0.00 | 0.00 | 0.00 | 88 | 1078.9 |
| 20260506022203 | 11 | 205 | 0.0 | 3.2 | 0.00 | 0.00 | 0.00 | 88 | 1078.5 |
| 20260506022103 | 11 | 205 | 0.0 | 3.2 | 0.00 | 0.00 | 0.00 | 88 | 1078.7 |
| 20260506022003 | 11 | 204 | 0.0 | 3.2 | 0.00 | 0.00 | 0.00 | 88 | 1078.8 |
| 20260506021903 | 11 | 207 | 0.0 | 3.2 | 0.00 | 0.00 | 0.00 | 88 | 1078.5 |
| 20260506021817 | 11 | 207 | 0.0 | 3.2 | 0.00 | 0.00 | 0.00 | 88 | 1078.5 |
| 20260506021803 | 11 | 207 | 0.0 | 3.2 | 0.00 | 0.00 | 0.00 | 88 | 1078.6 |
| 20260506021703 | 11 | 208 | 0.0 | 3.2 | 0.00 | 0.00 | 0.00 | 88 | 1078.6 |
| 20260506021503 | 11 | 212 | 0.0 | 3.2 | 0.00 | 0.00 | 0.00 | 88 | 1078.4 |
| 20260506021403 | 11 | 0 | 0.0 | 0.0 | 0.00 | 0.00 | 0.00 | 88 | 1078.5 |
| 20260506021303 | 11 | 0 | 0.0 | 0.0 | 0.00 | 0.00 | 0.00 | 88 | 1078.6 |
| 20260506021203 | 11 | 0 | 0.0 | 0.0 | 0.00 | 0.00 | 0.00 | 88 | 1078.6 |
| 20260506021103 | 11 | 0 | 0.0 | 0.0 | 0.00 | 0.00 | 0.00 | 88 | 1078.6 |
| 20260506020903 | 12 | 0 | 0.0 | 0.0 | 0.00 | 0.00 | 0.00 | 87 | 1078.4 |
| 20260506020817 | 12 | 0 | 0.0 | 0.0 | 0.00 | 0.00 | 0.00 | 87 | 1078.4 |
| 20260506020803 | 12 | 0 | 0.0 | 0.0 | 0.00 | 0.00 | 0.00 | 87 | 1078.5 |
| 20260506020703 | 12 | 0 | 0.0 | 0.0 | 0.00 | 0.00 | 0.00 | 87 | 1078.5 |
| 20260506020503 | 12 | 0 | 0.0 | 0.0 | 0.00 | 0.00 | 0.00 | 88 | 1078.3 |
| 20260506020403 | 12 | 277 | 0.0 | 1.6 | 0.00 | 0.00 | 0.00 | 88 | 1078.1 |
| 20260506020303 | 12 | 289 | 0.0 | 1.6 | 0.00 | 0.00 | 0.00 | 88 | 1078.2 |
| 20260506020203 | 12 | 291 | 0.0 | 3.2 | 0.00 | 0.00 | 0.00 | 88 | 1078.3 |
| 20260506020117 | 12 | 311 | 0.0 | 3.2 | 0.00 | 0.00 | 0.00 | 88 | 1078.3 |
| 20260506020103 | 12 | 310 | 0.0 | 3.2 | 0.00 | 0.00 | 0.00 | 88 | 1078.3 |
| 20260506020003 | 12 | 290 | 0.0 | 4.8 | 0.00 | 0.00 | 0.00 | 88 | 1078.1 |
| 20260506015803 | 12 | 273 | 1.6 | 6.4 | 0.00 | 0.00 | 0.00 | 88 | 1078.2 |
| 20260506015703 | 12 | 270 | 1.6 | 6.4 | 0.00 | 0.00 | 0.00 | 88 | 1078.1 |
| 20260506015603 | 12 | 274 | 1.6 | 6.4 | 0.00 | 0.00 | 0.00 | 89 | 1078.3 |
| 20260506015517 | 12 | 274 | 1.6 | 6.4 | 0.00 | 0.00 | 0.00 | 89 | 1078.3 |
| 20260506015503 | 12 | 274 | 1.6 | 6.4 | 0.00 | 0.00 | 0.00 | 89 | 1078.2 |
| 20260506015418 | 12 | 274 | 1.6 | 6.4 | 0.00 | 0.00 | 0.00 | 89 | 1078.2 |
| 20260506015403 | 12 | 273 | 1.6 | 6.4 | 0.00 | 0.00 | 0.00 | 89 | 1078.1 |
| 20260506015103 | 12 | 262 | 3.2 | 9.7 | 0.00 | 0.00 | 0.00 | 89 | 1078.1 |
| 20260506015018 | 12 | 262 | 3.2 | 9.7 | 0.00 | 0.00 | 0.00 | 89 | 1078.1 |
| 20260506015003 | 12 | 263 | 3.2 | 9.7 | 0.00 | 0.00 | 0.00 | 89 | 1078.2 |
| 20260506014903 | 12 | 266 | 3.2 | 9.7 | 0.00 | 0.00 | 0.00 | 88 | 1078.3 |
| 20260506014703 | 12 | 269 | 3.2 | 12.9 | 0.00 | 0.00 | 0.00 | 89 | 1078.2 |
| 20260506014603 | 12 | 269 | 3.2 | 12.9 | 0.00 | 0.00 | 0.00 | 89 | 1078.2 |
| 20260506014503 | 12 | 270 | 3.2 | 12.9 | 0.00 | 0.00 | 0.00 | 89 | 1078.1 |
| 20260506014418 | 12 | 270 | 4.8 | 12.9 | 0.00 | 0.00 | 0.00 | 89 | 1078.1 |
| 20260506014403 | 12 | 269 | 4.8 | 12.9 | 0.00 | 0.00 | 0.00 | 89 | 1078.4 |
| 20260506014318 | 12 | 271 | 4.8 | 12.9 | 0.00 | 0.00 | 0.00 | 89 | 1078.4 |
| 20260506014303 | 12 | 273 | 4.8 | 12.9 | 0.00 | 0.00 | 0.00 | 89 | 1078.4 |
| 20260506014003 | 13 | 272 | 4.8 | 12.9 | 0.00 | 0.00 | 0.00 | 89 | 1078.4 |
| 20260506013903 | 13 | 271 | 4.8 | 12.9 | 0.00 | 0.00 | 0.00 | 89 | 1078.4 |
| 20260506013803 | 13 | 272 | 4.8 | 12.9 | 0.00 | 0.00 | 0.00 | 89 | 1078.4 |
| 20260506013703 | 13 | 270 | 4.8 | 12.9 | 0.00 | 0.00 | 0.00 | 89 | 1078.4 |
| 20260506013603 | 13 | 268 | 3.2 | 12.9 | 0.00 | 0.00 | 0.00 | 89 | 1078.3 |
| 20260506013503 | 13 | 266 | 3.2 | 12.9 | 0.00 | 0.00 | 0.00 | 89 | 1078.2 |
| 20260506013418 | 13 | 265 | 3.2 | 11.3 | 0.00 | 0.00 | 0.00 | 89 | 1078.2 |
| 20260506013403 | 13 | 268 | 3.2 | 11.3 | 0.00 | 0.00 | 0.00 | 89 | 1078.3 |
| 20260506013303 | 13 | 264 | 1.6 | 6.4 | 0.00 | 0.00 | 0.00 | 88 | 1078.1 |
| 20260506013103 | 13 | 267 | 1.6 | 4.8 | 0.00 | 0.00 | 0.00 | 88 | 1078.2 |
| 20260506013003 | 13 | 264 | 1.6 | 6.4 | 0.00 | 0.00 | 0.00 | 87 | 1078.3 |
| 20260506012903 | 13 | 265 | 1.6 | 6.4 | 0.00 | 0.00 | 0.00 | 88 | 1078.1 |
| 20260506012817 | 13 | 266 | 3.2 | 6.4 | 0.00 | 0.00 | 0.00 | 88 | 1078.1 |
| 20260506012803 | 13 | 267 | 3.2 | 6.4 | 0.00 | 0.00 | 0.00 | 88 | 1078.3 |
| 20260506012718 | 13 | 268 | 3.2 | 6.4 | 0.00 | 0.00 | 0.00 | 88 | 1078.3 |
| 20260506012703 | 13 | 269 | 3.2 | 6.4 | 0.00 | 0.00 | 0.00 | 88 | 1078.2 |
| 20260506012403 | 13 | 271 | 3.2 | 6.4 | 0.00 | 0.00 | 0.00 | 88 | 1078.4 |
| 20260506012307 | 13 | 272 | 3.2 | 6.4 | 0.00 | 0.00 | 0.00 | 89 | 1078.4 |
| 20260506012217 | 13 | 274 | 4.8 | 6.4 | 0.00 | 0.00 | 0.00 | 89 | 1078.4 |
| 20260506012203 | 13 | 275 | 4.8 | 6.4 | 0.00 | 0.00 | 0.00 | 88 | 1078.3 |
| 20260506012103 | 13 | 281 | 4.8 | 9.7 | 0.00 | 0.00 | 0.00 | 88 | 1078.3 |
| 20260506011903 | 13 | 290 | 4.8 | 9.7 | 0.00 | 0.00 | 0.00 | 88 | 1078.2 |
| 20260506011803 | 13 | 291 | 4.8 | 9.7 | 0.00 | 0.00 | 0.00 | 89 | 1078.2 |
| 20260506011703 | 13 | 292 | 4.8 | 11.3 | 0.00 | 0.00 | 0.00 | 88 | 1078.0 |
| 20260506011603 | 13 | 295 | 4.8 | 11.3 | 0.00 | 0.00 | 0.00 | 87 | 1078.4 |
| 20260506011503 | 13 | 301 | 4.8 | 11.3 | 0.00 | 0.00 | 0.00 | 87 | 1078.1 |
| 20260506011403 | 13 | 304 | 4.8 | 11.3 | 0.00 | 0.00 | 0.00 | 87 | 1078.1 |
| 20260506011303 | 13 | 310 | 4.8 | 11.3 | 0.00 | 0.00 | 0.00 | 87 | 1078.3 |
| 20260506011216 | 13 | 313 | 4.8 | 11.3 | 0.00 | 0.00 | 0.00 | 87 | 1078.3 |
| 20260506011203 | 13 | 313 | 4.8 | 11.3 | 0.00 | 0.00 | 0.00 | 87 | 1078.2 |
| 20260506011103 | 13 | 313 | 4.8 | 11.3 | 0.00 | 0.00 | 0.00 | 87 | 1078.1 |
| 20260506010903 | 13 | 310 | 4.8 | 11.3 | 0.00 | 0.00 | 0.00 | 87 | 1078.2 |
| 20260506010803 | 13 | 311 | 4.8 | 11.3 | 0.00 | 0.00 | 0.00 | 87 | 1078.1 |
| 20260506010703 | 13 | 313 | 4.8 | 11.3 | 0.00 | 0.00 | 0.00 | 87 | 1078.0 |
| 20260506010603 | 13 | 321 | 4.8 | 11.3 | 0.00 | 0.00 | 0.00 | 87 | 1078.2 |
| 20260506010503 | 13 | 326 | 4.8 | 11.3 | 0.00 | 0.00 | 0.00 | 87 | 1078.2 |
| 20260506010403 | 13 | 330 | 4.8 | 11.3 | 0.00 | 0.00 | 0.00 | 86 | 1078.2 |
| 20260506010318 | 13 | 328 | 4.8 | 11.3 | 0.00 | 0.00 | 0.00 | 87 | 1078.2 |
| 20260506010303 | 13 | 329 | 4.8 | 11.3 | 0.00 | 0.00 | 0.00 | 87 | 1078.2 |
| 20260506010203 | 13 | 330 | 4.8 | 11.3 | 0.00 | 0.00 | 0.00 | 86 | 1078.1 |
| 20260506010003 | 13 | 336 | 3.2 | 11.3 | 0.00 | 0.00 | 0.00 | 86 | 1078.2 |
| 20260506005903 | 13 | 333 | 4.8 | 11.3 | 0.00 | 0.00 | 0.00 | 86 | 1078.3 |
| 20260506005803 | 13 | 330 | 4.8 | 11.3 | 0.00 | 0.00 | 0.00 | 86 | 1078.2 |
| 20260506005703 | 13 | 329 | 4.8 | 11.3 | 0.00 | 0.00 | 0.00 | 86 | 1078.4 |
| 20260506005618 | 13 | 324 | 3.2 | 11.3 | 0.00 | 0.00 | 0.00 | 86 | 1078.1 |
| 20260506005603 | 13 | 323 | 3.2 | 11.3 | 0.00 | 0.00 | 0.00 | 86 | 1078.1 |
| 20260506005503 | 13 | 306 | 3.2 | 11.3 | 0.00 | 0.00 | 0.00 | 86 | 1078.1 |
| 20260506005305 | 13 | 288 | 3.2 | 11.3 | 0.00 | 0.00 | 0.00 | 83 | 1078.1 |
| 20260506005203 | 13 | 282 | 4.8 | 11.3 | 0.00 | 0.00 | 0.00 | 84 | 1078.4 |
| 20260506005117 | 13 | 284 | 4.8 | 12.9 | 0.00 | 0.00 | 0.00 | 84 | 1078.2 |
| 20260506005103 | 13 | 283 | 4.8 | 12.9 | 0.00 | 0.00 | 0.00 | 84 | 1078.2 |
| 20260506005003 | 13 | 283 | 4.8 | 12.9 | 0.00 | 0.00 | 0.00 | 84 | 1078.2 |
| 20260506004803 | 13 | 285 | 6.4 | 12.9 | 0.00 | 0.00 | 0.00 | 84 | 1078.2 |
| 20260506004703 | 13 | 286 | 6.4 | 12.9 | 0.00 | 0.00 | 0.00 | 84 | 1078.1 |
| 20260506004603 | 13 | 290 | 6.4 | 12.9 | 0.00 | 0.00 | 0.00 | 84 | 1078.4 |
| 20260506004504 | 13 | 287 | 6.4 | 14.5 | 0.00 | 0.00 | 0.00 | 85 | 1078.3 |
| 20260506004403 | 13 | 284 | 6.4 | 14.5 | 0.00 | 0.00 | 0.00 | 84 | 1078.4 |
| 20260506004303 | 13 | 280 | 6.4 | 14.5 | 0.00 | 0.00 | 0.00 | 84 | 1078.3 |
| 20260506004203 | 13 | 279 | 6.4 | 14.5 | 0.00 | 0.00 | 0.00 | 83 | 1078.2 |
| 20260506004103 | 13 | 277 | 6.4 | 14.5 | 0.00 | 0.00 | 0.00 | 83 | 1078.1 |
| 20260506004003 | 13 | 274 | 6.4 | 14.5 | 0.00 | 0.00 | 0.00 | 82 | 1078.1 |
| 20260506003903 | 13 | 270 | 6.4 | 14.5 | 0.00 | 0.00 | 0.00 | 83 | 1078.1 |
| 20260506003803 | 13 | 269 | 6.4 | 14.5 | 0.00 | 0.00 | 0.00 | 82 | 1078.3 |
| 20260506003703 | 13 | 269 | 6.4 | 14.5 | 0.00 | 0.00 | 0.00 | 82 | 1078.2 |
| 20260506003603 | 13 | 266 | 6.4 | 14.5 | 0.00 | 0.00 | 0.00 | 81 | 1078.3 |
| 20260506003503 | 13 | 271 | 6.4 | 14.5 | 0.00 | 0.00 | 0.00 | 81 | 1078.1 |
| 20260506003403 | 13 | 274 | 8.0 | 17.7 | 0.00 | 0.00 | 0.00 | 82 | 1078.2 |
| 20260506003303 | 13 | 278 | 8.0 | 20.9 | 0.00 | 0.00 | 0.00 | 81 | 1078.2 |
| 20260506003203 | 13 | 278 | 9.7 | 20.9 | 0.00 | 0.00 | 0.00 | 81 | 1078.2 |
| 20260506003103 | 13 | 279 | 9.7 | 20.9 | 0.00 | 0.00 | 0.00 | 81 | 1078.1 |
| 20260506002903 | 13 | 281 | 9.7 | 20.9 | 0.00 | 0.00 | 0.00 | 81 | 1078.2 |
| 20260506002803 | 13 | 282 | 9.7 | 20.9 | 0.00 | 0.00 | 0.00 | 81 | 1078.3 |
| 20260506002703 | 13 | 282 | 8.0 | 20.9 | 0.00 | 0.00 | 0.00 | 80 | 1078.2 |
| 20260506002603 | 13 | 282 | 8.0 | 20.9 | 0.00 | 0.00 | 0.00 | 81 | 1077.9 |
| 20260506002504 | 13 | 280 | 8.0 | 20.9 | 0.00 | 0.00 | 0.00 | 81 | 1078.0 |
| 20260506002417 | 13 | 280 | 6.4 | 20.9 | 0.00 | 0.00 | 0.00 | 80 | 1078.0 |
| 20260506002403 | 13 | 280 | 6.4 | 20.9 | 0.00 | 0.00 | 0.00 | 80 | 1078.3 |
| 20260506002305 | 13 | 280 | 6.4 | 14.5 | 0.00 | 0.00 | 0.00 | 78 | 1078.0 |
| 20260506002103 | 13 | 283 | 4.8 | 9.7 | 0.00 | 0.00 | 0.00 | 77 | 1078.0 |
| 20260506002003 | 13 | 282 | 4.8 | 9.7 | 0.00 | 0.00 | 0.00 | 76 | 1078.1 |
| 20260506001903 | 13 | 283 | 3.2 | 9.7 | 0.00 | 0.00 | 0.00 | 75 | 1078.2 |
| 20260506001803 | 13 | 286 | 3.2 | 9.7 | 0.00 | 0.00 | 0.00 | 74 | 1078.2 |
| 20260506001703 | 13 | 285 | 3.2 | 9.7 | 0.00 | 0.00 | 0.00 | 75 | 1078.0 |
| 20260506001518 | 13 | 285 | 3.2 | 9.7 | 0.00 | 0.00 | 0.00 | 75 | 1078.1 |
| 20260506001503 | 13 | 286 | 3.2 | 9.7 | 0.00 | 0.00 | 0.00 | 74 | 1078.1 |
| 20260506001403 | 13 | 285 | 3.2 | 9.7 | 0.00 | 0.00 | 0.00 | 75 | 1078.1 |
| 20260506001218 | 13 | 284 | 3.2 | 9.7 | 0.00 | 0.00 | 0.00 | 74 | 1078.0 |
| 20260506001203 | 13 | 284 | 3.2 | 9.7 | 0.00 | 0.00 | 0.00 | 74 | 1078.1 |
| 20260506001103 | 13 | 280 | 3.2 | 9.7 | 0.00 | 0.00 | 0.00 | 74 | 1078.0 |
| 20260506000903 | 13 | 280 | 1.6 | 9.7 | 0.00 | 0.00 | 0.00 | 74 | 1077.9 |
| 20260506000803 | 13 | 278 | 1.6 | 6.4 | 0.00 | 0.00 | 0.00 | 74 | 1078.1 |
| 20260506000717 | 13 | 281 | 1.6 | 9.7 | 0.00 | 0.00 | 0.00 | 73 | 1078.1 |
| 20260506000703 | 13 | 283 | 1.6 | 9.7 | 0.00 | 0.00 | 0.00 | 73 | 1078.0 |
| 20260506000603 | 13 | 286 | 1.6 | 9.7 | 0.00 | 0.00 | 0.00 | 72 | 1078.1 |
| 20260506000403 | 13 | 288 | 1.6 | 9.7 | 0.00 | 0.00 | 0.00 | 73 | 1077.8 |
| 20260506000303 | 13 | 294 | 1.6 | 9.7 | 0.00 | 0.00 | 0.00 | 72 | 1077.9 |
| 20260506000219 | 13 | 293 | 1.6 | 9.7 | 0.00 | 0.00 | 0.00 | 72 | 1077.9 |
| 20260506000204 | 13 | 293 | 1.6 | 9.7 | 0.00 | 0.00 | 0.00 | 72 | 1078.0 |
| 20260505235903 | 13 | 294 | 1.6 | 9.7 | 0.00 | 0.00 | 0.00 | 72 | 1078.0 |
| 20260505235803 | 13 | 292 | 1.6 | 9.7 | 0.00 | 0.00 | 0.00 | 72 | 1077.9 |
| 20260505235703 | 13 | 291 | 0.0 | 6.4 | 0.00 | 0.00 | 0.00 | 72 | 1077.9 |
| 20260505235618 | 13 | 291 | 0.0 | 3.2 | 0.00 | 0.00 | 0.00 | 72 | 1077.9 |
| 20260505235603 | 13 | 288 | 0.0 | 3.2 | 0.00 | 0.00 | 0.00 | 71 | 1077.9 |
| 20260505235518 | 13 | 285 | 0.0 | 3.2 | 0.00 | 0.00 | 0.00 | 71 | 1077.9 |
| 20260505235503 | 13 | 285 | 0.0 | 3.2 | 0.00 | 0.00 | 0.00 | 71 | 1078.1 |
| 20260505235203 | 13 | 296 | 0.0 | 3.2 | 0.00 | 0.00 | 0.00 | 72 | 1078.1 |
| 20260505235103 | 13 | 294 | 0.0 | 3.2 | 0.00 | 0.00 | 0.00 | 72 | 1078.0 |
| 20260505235003 | 13 | 324 | 0.0 | 3.2 | 0.00 | 0.00 | 0.00 | 72 | 1078.1 |
| 20260505234903 | 13 | 325 | 0.0 | 3.2 | 0.00 | 0.00 | 0.00 | 72 | 1077.9 |
| 20260505234816 | 13 | 327 | 0.0 | 3.2 | 0.00 | 0.00 | 0.00 | 71 | 1077.9 |
| 20260505234803 | 13 | 327 | 0.0 | 3.2 | 0.00 | 0.00 | 0.00 | 71 | 1077.8 |
| 20260505234703 | 13 | 323 | 0.0 | 3.2 | 0.00 | 0.00 | 0.00 | 70 | 1077.8 |
| 20260505234503 | 13 | 312 | 0.0 | 3.2 | 0.00 | 0.00 | 0.00 | 70 | 1077.8 |
| 20260505234417 | 13 | 307 | 0.0 | 3.2 | 0.00 | 0.00 | 0.00 | 70 | 1077.8 |
| 20260505234403 | 13 | 305 | 0.0 | 3.2 | 0.00 | 0.00 | 0.00 | 70 | 1077.9 |
| 20260505234303 | 13 | 304 | 0.0 | 3.2 | 0.00 | 0.00 | 0.00 | 70 | 1078.0 |
| 20260505234103 | 13 | 298 | 0.0 | 3.2 | 0.00 | 0.00 | 0.00 | 70 | 1078.2 |
| 20260505234003 | 13 | 265 | 0.0 | 3.2 | 0.00 | 0.00 | 0.00 | 70 | 1078.0 |
| 20260505233918 | 13 | 252 | 0.0 | 3.2 | 0.00 | 0.00 | 0.00 | 70 | 1078.0 |
| 20260505233903 | 13 | 248 | 0.0 | 3.2 | 0.00 | 0.00 | 0.00 | 70 | 1078.4 |
| 20260505233803 | 13 | 238 | 0.0 | 3.2 | 0.00 | 0.00 | 0.00 | 70 | 1078.4 |
| 20260505233603 | 13 | 237 | 1.6 | 3.2 | 0.00 | 0.00 | 0.00 | 70 | 1078.1 |
| 20260505233503 | 13 | 235 | 1.6 | 3.2 | 0.00 | 0.00 | 0.00 | 69 | 1078.3 |
| 20260505233403 | 13 | 235 | 0.0 | 3.2 | 0.00 | 0.00 | 0.00 | 70 | 1078.2 |
| 20260505233303 | 13 | 236 | 1.6 | 3.2 | 0.00 | 0.00 | 0.00 | 70 | 1078.3 |
| 20260505233203 | 13 | 236 | 1.6 | 3.2 | 0.00 | 0.00 | 0.00 | 70 | 1078.3 |
| 20260505233103 | 13 | 235 | 1.6 | 3.2 | 0.00 | 0.00 | 0.00 | 70 | 1078.2 |
| 20260505233003 | 13 | 234 | 1.6 | 3.2 | 0.00 | 0.00 | 0.00 | 70 | 1078.1 |
| 20260505232903 | 13 | 231 | 1.6 | 3.2 | 0.00 | 0.00 | 0.00 | 70 | 1078.2 |
| 20260505232803 | 13 | 229 | 0.0 | 3.2 | 0.00 | 0.00 | 0.00 | 71 | 1078.3 |
| 20260505232603 | 13 | 227 | 0.0 | 3.2 | 0.00 | 0.00 | 0.00 | 68 | 1078.1 |
| 20260505232503 | 13 | 224 | 0.0 | 3.2 | 0.00 | 0.00 | 0.00 | 68 | 1078.4 |
| 20260505232403 | 13 | 224 | 1.6 | 3.2 | 0.00 | 0.00 | 0.00 | 69 | 1078.2 |
| 20260505232305 | 13 | 221 | 0.0 | 3.2 | 0.00 | 0.00 | 0.00 | 69 | 1078.0 |
| 20260505232203 | 13 | 218 | 0.0 | 3.2 | 0.00 | 0.00 | 0.00 | 69 | 1078.2 |
| 20260505232103 | 13 | 203 | 0.0 | 3.2 | 0.00 | 0.00 | 0.00 | 69 | 1077.9 |
| 20260505232003 | 13 | 185 | 0.0 | 3.2 | 0.00 | 0.00 | 0.00 | 69 | 1078.2 |
| 20260505231903 | 13 | 178 | 0.0 | 3.2 | 0.00 | 0.00 | 0.00 | 69 | 1078.1 |
| 20260505231803 | 13 | 178 | 0.0 | 3.2 | 0.00 | 0.00 | 0.00 | 68 | 1078.1 |
| 20260505231703 | 13 | 170 | 1.6 | 6.4 | 0.00 | 0.00 | 0.00 | 68 | 1078.2 |
| 20260505231603 | 13 | 150 | 1.6 | 6.4 | 0.00 | 0.00 | 0.00 | 68 | 1078.0 |
| 20260505231503 | 13 | 141 | 1.6 | 9.7 | 0.00 | 0.00 | 0.00 | 68 | 1077.9 |
| 20260505231403 | 13 | 133 | 1.6 | 9.7 | 0.00 | 0.00 | 0.00 | 68 | 1078.0 |
| 20260505231317 | 13 | 121 | 1.6 | 9.7 | 0.00 | 0.00 | 0.00 | 68 | 1078.1 |
| 20260505231303 | 13 | 120 | 1.6 | 9.7 | 0.00 | 0.00 | 0.00 | 68 | 1078.1 |
| 20260505231203 | 13 | 119 | 1.6 | 9.7 | 0.00 | 0.00 | 0.00 | 68 | 1078.2 |
| 20260505231003 | 13 | 115 | 3.2 | 9.7 | 0.00 | 0.00 | 0.00 | 68 | 1077.9 |
| 20260505230918 | 13 | 117 | 3.2 | 9.7 | 0.00 | 0.00 | 0.00 | 69 | 1077.9 |
| 20260505230903 | 13 | 118 | 3.2 | 9.7 | 0.00 | 0.00 | 0.00 | 69 | 1077.9 |
| 20260505230803 | 13 | 118 | 3.2 | 9.7 | 0.00 | 0.00 | 0.00 | 68 | 1078.0 |
| 20260505230603 | 13 | 117 | 3.2 | 9.7 | 0.00 | 0.00 | 0.00 | 68 | 1078.0 |
| 20260505230503 | 13 | 115 | 3.2 | 9.7 | 0.00 | 0.00 | 0.00 | 68 | 1078.2 |
| 20260505230403 | 13 | 118 | 3.2 | 9.7 | 0.00 | 0.00 | 0.00 | 67 | 1077.7 |
| 20260505230303 | 13 | 123 | 3.2 | 9.7 | 0.00 | 0.00 | 0.00 | 67 | 1078.0 |
| 20260505230203 | 13 | 122 | 3.2 | 9.7 | 0.00 | 0.00 | 0.00 | 67 | 1077.9 |
| 20260505230003 | 13 | 126 | 1.6 | 9.7 | 0.00 | 0.00 | 0.00 | 67 | 1077.8 |
| 20260505225903 | 13 | 122 | 1.6 | 9.7 | 0.00 | 0.00 | 0.00 | 67 | 1077.8 |
| 20260505225808 | 13 | 120 | 1.6 | 9.7 | 0.00 | 0.00 | 0.00 | 68 | 1077.8 |
| 20260505225703 | 13 | 118 | 1.6 | 9.7 | 0.00 | 0.00 | 0.00 | 67 | 1077.9 |
| 20260505225603 | 13 | 111 | 1.6 | 9.7 | 0.00 | 0.00 | 0.00 | 68 | 1077.8 |
| 20260505225503 | 13 | 104 | 1.6 | 6.4 | 0.00 | 0.00 | 0.00 | 67 | 1077.8 |
| 20260505225403 | 13 | 91 | 1.6 | 6.4 | 0.00 | 0.00 | 0.00 | 67 | 1077.8 |
| 20260505225305 | 13 | 90 | 1.6 | 11.3 | 0.00 | 0.00 | 0.00 | 67 | 1077.7 |
| 20260505225203 | 13 | 95 | 1.6 | 11.3 | 0.00 | 0.00 | 0.00 | 67 | 1077.7 |
| 20260505225017 | 13 | 99 | 3.2 | 11.3 | 0.00 | 0.00 | 0.00 | 67 | 1077.8 |
| 20260505225003 | 13 | 98 | 3.2 | 11.3 | 0.00 | 0.00 | 0.00 | 67 | 1077.8 |
| 20260505224917 | 13 | 95 | 3.2 | 11.3 | 0.00 | 0.00 | 0.00 | 67 | 1077.8 |
| 20260505224903 | 13 | 94 | 3.2 | 11.3 | 0.00 | 0.00 | 0.00 | 67 | 1077.7 |
| 20260505224818 | 13 | 91 | 3.2 | 11.3 | 0.00 | 0.00 | 0.00 | 67 | 1077.7 |
| 20260505224617 | 13 | 92 | 3.2 | 11.3 | 0.00 | 0.00 | 0.00 | 67 | 1077.5 |
| 20260505224503 | 13 | 89 | 3.2 | 11.3 | 0.00 | 0.00 | 0.00 | 67 | 1077.7 |
| 20260505224303 | 13 | 96 | 4.8 | 14.5 | 0.00 | 0.00 | 0.00 | 67 | 1077.6 |
| 20260505224203 | 13 | 95 | 4.8 | 14.5 | 0.00 | 0.00 | 0.00 | 67 | 1077.6 |
| 20260505224103 | 13 | 94 | 4.8 | 14.5 | 0.00 | 0.00 | 0.00 | 67 | 1077.6 |
| 20260505223903 | 13 | 92 | 4.8 | 14.5 | 0.00 | 0.00 | 0.00 | 67 | 1077.6 |
| 20260505223818 | 13 | 91 | 4.8 | 14.5 | 0.00 | 0.00 | 0.00 | 67 | 1077.6 |
| 20260505223803 | 13 | 92 | 4.8 | 14.5 | 0.00 | 0.00 | 0.00 | 67 | 1077.8 |
| 20260505223703 | 13 | 91 | 4.8 | 14.5 | 0.00 | 0.00 | 0.00 | 67 | 1077.6 |
| 20260505223503 | 13 | 93 | 4.8 | 14.5 | 0.00 | 0.00 | 0.00 | 66 | 1077.7 |
| 20260505223403 | 13 | 93 | 4.8 | 12.9 | 0.00 | 0.00 | 0.00 | 67 | 1077.8 |
| 20260505223303 | 13 | 93 | 4.8 | 12.9 | 0.00 | 0.00 | 0.00 | 66 | 1077.6 |
| 20260505223203 | 13 | 91 | 4.8 | 12.9 | 0.00 | 0.00 | 0.00 | 66 | 1077.8 |
| 20260505223103 | 13 | 89 | 4.8 | 12.9 | 0.00 | 0.00 | 0.00 | 66 | 1078.0 |
| 20260505223003 | 13 | 93 | 4.8 | 11.3 | 0.00 | 0.00 | 0.00 | 66 | 1077.7 |
| 20260505222903 | 13 | 92 | 3.2 | 11.3 | 0.00 | 0.00 | 0.00 | 66 | 1077.9 |
| 20260505222818 | 13 | 92 | 3.2 | 11.3 | 0.00 | 0.00 | 0.00 | 66 | 1077.9 |
| 20260505222803 | 13 | 90 | 3.2 | 11.3 | 0.00 | 0.00 | 0.00 | 66 | 1077.8 |
| 20260505222703 | 13 | 92 | 4.8 | 11.3 | 0.00 | 0.00 | 0.00 | 66 | 1077.7 |
| 20260505222503 | 13 | 91 | 4.8 | 11.3 | 0.00 | 0.00 | 0.00 | 66 | 1077.8 |
| 20260505222418 | 13 | 87 | 4.8 | 11.3 | 0.00 | 0.00 | 0.00 | 66 | 1077.8 |
| 20260505222403 | 13 | 86 | 4.8 | 11.3 | 0.00 | 0.00 | 0.00 | 66 | 1077.7 |
| 20260505222305 | 13 | 85 | 4.8 | 11.3 | 0.00 | 0.00 | 0.00 | 66 | 1077.6 |
| 20260505222103 | 13 | 84 | 6.4 | 16.1 | 0.00 | 0.00 | 0.00 | 66 | 1077.8 |
| 20260505222003 | 13 | 84 | 6.4 | 16.1 | 0.00 | 0.00 | 0.00 | 66 | 1077.6 |
| 20260505221903 | 13 | 85 | 6.4 | 16.1 | 0.00 | 0.00 | 0.00 | 66 | 1077.6 |
| 20260505221818 | 13 | 84 | 8.0 | 16.1 | 0.00 | 0.00 | 0.00 | 66 | 1077.6 |
| 20260505221803 | 13 | 85 | 8.0 | 16.1 | 0.00 | 0.00 | 0.00 | 66 | 1077.6 |
| 20260505221703 | 13 | 82 | 8.0 | 16.1 | 0.00 | 0.00 | 0.00 | 66 | 1077.5 |
| 20260505221518 | 13 | 81 | 6.4 | 16.1 | 0.00 | 0.00 | 0.00 | 66 | 1077.6 |
| 20260505221503 | 13 | 81 | 6.4 | 16.1 | 0.00 | 0.00 | 0.00 | 66 | 1077.5 |
| 20260505221403 | 13 | 80 | 6.4 | 16.1 | 0.00 | 0.00 | 0.00 | 66 | 1077.5 |
| 20260505221203 | 13 | 79 | 6.4 | 14.5 | 0.00 | 0.00 | 0.00 | 66 | 1077.6 |
| 20260505221103 | 13 | 78 | 6.4 | 14.5 | 0.00 | 0.00 | 0.00 | 66 | 1077.4 |
| 20260505221003 | 13 | 77 | 4.8 | 14.5 | 0.00 | 0.00 | 0.00 | 66 | 1077.6 |
| 20260505220903 | 13 | 78 | 4.8 | 14.5 | 0.00 | 0.00 | 0.00 | 66 | 1077.5 |
| 20260505220803 | 13 | 88 | 4.8 | 16.1 | 0.00 | 0.00 | 0.00 | 66 | 1077.6 |
| 20260505220703 | 13 | 100 | 4.8 | 16.1 | 0.00 | 0.00 | 0.00 | 65 | 1077.7 |
| 20260505220603 | 13 | 111 | 4.8 | 16.1 | 0.00 | 0.00 | 0.00 | 65 | 1077.5 |
| 20260505220503 | 13 | 124 | 4.8 | 16.1 | 0.00 | 0.00 | 0.00 | 65 | 1077.8 |
| 20260505220403 | 13 | 128 | 4.8 | 16.1 | 0.00 | 0.00 | 0.00 | 66 | 1077.6 |
| 20260505220303 | 13 | 127 | 4.8 | 16.1 | 0.00 | 0.00 | 0.00 | 65 | 1077.8 |
| 20260505220217 | 14 | 128 | 4.8 | 16.1 | 0.00 | 0.00 | 0.00 | 65 | 1077.8 |
| 20260505220203 | 14 | 129 | 4.8 | 16.1 | 0.00 | 0.00 | 0.00 | 65 | 1077.4 |
| 20260505220103 | 13 | 125 | 4.8 | 16.1 | 0.00 | 0.00 | 0.00 | 66 | 1077.7 |
| 20260505215903 | 13 | 121 | 4.8 | 16.1 | 0.00 | 0.00 | 0.00 | 66 | 1078.1 |
| 20260505215803 | 13 | 119 | 4.8 | 14.5 | 0.00 | 0.00 | 0.00 | 66 | 1077.9 |
| 20260505215703 | 13 | 111 | 4.8 | 16.1 | 0.00 | 0.00 | 0.00 | 66 | 1077.8 |
| 20260505215603 | 13 | 96 | 4.8 | 16.1 | 0.00 | 0.00 | 0.00 | 66 | 1077.6 |
| 20260505215517 | 13 | 87 | 4.8 | 16.1 | 0.00 | 0.00 | 0.00 | 65 | 1077.6 |
| 20260505215503 | 13 | 84 | 4.8 | 16.1 | 0.00 | 0.00 | 0.00 | 65 | 1077.2 |
| 20260505215403 | 13 | 83 | 4.8 | 16.1 | 0.00 | 0.00 | 0.00 | 65 | 1077.4 |
| 20260505215203 | 13 | 80 | 6.4 | 16.1 | 0.00 | 0.00 | 0.00 | 66 | 1076.9 |
| 20260505215103 | 13 | 82 | 8.0 | 20.9 | 0.00 | 0.00 | 0.00 | 66 | 1077.2 |
| 20260505215003 | 13 | 83 | 8.0 | 20.9 | 0.00 | 0.00 | 0.00 | 65 | 1077.2 |
| 20260505214903 | 13 | 79 | 8.0 | 20.9 | 0.00 | 0.00 | 0.00 | 66 | 1077.2 |
| 20260505214803 | 13 | 80 | 9.7 | 22.5 | 0.00 | 0.00 | 0.00 | 66 | 1077.0 |
| 20260505214703 | 13 | 77 | 9.7 | 22.5 | 0.00 | 0.00 | 0.00 | 66 | 1077.2 |
| 20260505214603 | 13 | 77 | 9.7 | 22.5 | 0.00 | 0.00 | 0.00 | 65 | 1076.9 |
| 20260505214403 | 13 | 76 | 9.7 | 22.5 | 0.00 | 0.00 | 0.00 | 65 | 1076.8 |
| 20260505214303 | 13 | 77 | 11.3 | 22.5 | 0.00 | 0.00 | 0.00 | 66 | 1076.9 |
| 20260505214203 | 13 | 79 | 11.3 | 22.5 | 0.00 | 0.00 | 0.00 | 65 | 1077.2 |
| 20260505214103 | 13 | 80 | 9.7 | 22.5 | 0.00 | 0.00 | 0.00 | 65 | 1076.9 |
| 20260505214003 | 13 | 78 | 9.7 | 22.5 | 0.00 | 0.00 | 0.00 | 65 | 1077.0 |
| 20260505213903 | 13 | 81 | 9.7 | 22.5 | 0.00 | 0.00 | 0.00 | 65 | 1077.5 |
| 20260505213803 | 13 | 79 | 9.7 | 22.5 | 0.00 | 0.00 | 0.00 | 65 | 1076.8 |
| 20260505213703 | 13 | 78 | 9.7 | 20.9 | 0.00 | 0.00 | 0.00 | 65 | 1077.2 |
| 20260505213603 | 13 | 80 | 9.7 | 20.9 | 0.00 | 0.00 | 0.00 | 65 | 1076.9 |
| 20260505213503 | 13 | 80 | 9.7 | 20.9 | 0.00 | 0.00 | 0.00 | 65 | 1076.8 |
| 20260505213403 | 13 | 79 | 9.7 | 20.9 | 0.00 | 0.00 | 0.00 | 65 | 1077.0 |
| 20260505213303 | 13 | 78 | 9.7 | 20.9 | 0.00 | 0.00 | 0.00 | 65 | 1077.0 |
| 20260505213203 | 13 | 77 | 9.7 | 20.9 | 0.00 | 0.00 | 0.00 | 65 | 1076.9 |
| 20260505213103 | 13 | 76 | 9.7 | 20.9 | 0.00 | 0.00 | 0.00 | 65 | 1076.8 |
| 20260505213003 | 13 | 76 | 9.7 | 20.9 | 0.00 | 0.00 | 0.00 | 65 | 1076.7 |
| 20260505212903 | 13 | 76 | 9.7 | 20.9 | 0.00 | 0.00 | 0.00 | 65 | 1077.0 |
| 20260505212803 | 13 | 79 | 9.7 | 20.9 | 0.00 | 0.00 | 0.00 | 65 | 1076.8 |
| 20260505212703 | 14 | 81 | 9.7 | 17.7 | 0.00 | 0.00 | 0.00 | 65 | 1077.0 |
| 20260505212603 | 14 | 81 | 9.7 | 17.7 | 0.00 | 0.00 | 0.00 | 65 | 1077.0 |
| 20260505212503 | 14 | 82 | 9.7 | 20.9 | 0.00 | 0.00 | 0.00 | 65 | 1076.9 |
| 20260505212403 | 14 | 84 | 9.7 | 22.5 | 0.00 | 0.00 | 0.00 | 65 | 1076.9 |
| 20260505212305 | 14 | 86 | 9.7 | 22.5 | 0.00 | 0.00 | 0.00 | 65 | 1076.9 |
| 20260505212203 | 14 | 87 | 9.7 | 22.5 | 0.00 | 0.00 | 0.00 | 65 | 1077.0 |
| 20260505212104 | 14 | 89 | 9.7 | 22.5 | 0.00 | 0.00 | 0.00 | 65 | 1077.0 |
| 20260505212003 | 14 | 90 | 11.3 | 22.5 | 0.00 | 0.00 | 0.00 | 64 | 1077.0 |
| 20260505211903 | 14 | 91 | 11.3 | 22.5 | 0.00 | 0.00 | 0.00 | 64 | 1076.9 |
| 20260505211803 | 14 | 89 | 9.7 | 22.5 | 0.00 | 0.00 | 0.00 | 64 | 1077.2 |
| 20260505211703 | 14 | 88 | 11.3 | 22.5 | 0.00 | 0.00 | 0.00 | 64 | 1077.1 |
| 20260505211603 | 14 | 85 | 11.3 | 22.5 | 0.00 | 0.00 | 0.00 | 65 | 1076.9 |
| 20260505211403 | 14 | 84 | 11.3 | 22.5 | 0.00 | 0.00 | 0.00 | 64 | 1077.1 |
| 20260505211303 | 14 | 84 | 9.7 | 22.5 | 0.00 | 0.00 | 0.00 | 64 | 1077.0 |
| 20260505211203 | 14 | 82 | 9.7 | 22.5 | 0.00 | 0.00 | 0.00 | 64 | 1077.0 |
| 20260505211103 | 14 | 82 | 9.7 | 22.5 | 0.00 | 0.00 | 0.00 | 64 | 1077.2 |
| 20260505211003 | 14 | 82 | 9.7 | 22.5 | 0.00 | 0.00 | 0.00 | 64 | 1077.2 |
| 20260505210903 | 14 | 81 | 9.7 | 22.5 | 0.00 | 0.00 | 0.00 | 64 | 1077.0 |
| 20260505210703 | 14 | 82 | 9.7 | 20.9 | 0.00 | 0.00 | 0.00 | 64 | 1077.1 |
| 20260505210603 | 14 | 84 | 9.7 | 20.9 | 0.00 | 0.00 | 0.00 | 64 | 1077.2 |
| 20260505210503 | 14 | 86 | 9.7 | 20.9 | 0.00 | 0.00 | 0.00 | 64 | 1077.1 |
| 20260505210403 | 14 | 87 | 9.7 | 20.9 | 0.00 | 0.00 | 0.00 | 64 | 1077.0 |
| 20260505210303 | 14 | 87 | 9.7 | 20.9 | 0.00 | 0.00 | 0.00 | 64 | 1077.1 |
| 20260505210203 | 14 | 88 | 9.7 | 20.9 | 0.00 | 0.00 | 0.00 | 64 | 1077.2 |
| 20260505210103 | 14 | 83 | 9.7 | 20.9 | 0.00 | 0.00 | 0.00 | 64 | 1076.8 |
| 20260505205903 | 14 | 84 | 9.7 | 17.7 | 0.00 | 0.00 | 0.00 | 63 | 1077.2 |
| 20260505205803 | 14 | 85 | 9.7 | 22.5 | 0.00 | 0.00 | 0.00 | 63 | 1076.9 |
| 20260505205703 | 14 | 84 | 11.3 | 22.5 | 0.00 | 0.00 | 0.00 | 63 | 1077.4 |
| 20260505205603 | 14 | 83 | 11.3 | 24.1 | 0.00 | 0.00 | 0.00 | 63 | 1077.0 |
| 20260505205503 | 14 | 82 | 11.3 | 24.1 | 0.00 | 0.00 | 0.00 | 63 | 1077.0 |
| 20260505205403 | 14 | 83 | 11.3 | 24.1 | 0.00 | 0.00 | 0.00 | 63 | 1076.8 |
| 20260505205305 | 14 | 82 | 11.3 | 24.1 | 0.00 | 0.00 | 0.00 | 63 | 1077.2 |
| 20260505205203 | 14 | 82 | 11.3 | 24.1 | 0.00 | 0.00 | 0.00 | 63 | 1077.1 |
| 20260505205103 | 14 | 85 | 12.9 | 24.1 | 0.00 | 0.00 | 0.00 | 63 | 1077.0 |
| 20260505205003 | 14 | 82 | 12.9 | 24.1 | 0.00 | 0.00 | 0.00 | 63 | 1077.0 |
| 20260505204903 | 15 | 80 | 12.9 | 24.1 | 0.00 | 0.00 | 0.00 | 63 | 1077.0 |
| 20260505204803 | 15 | 79 | 11.3 | 24.1 | 0.00 | 0.00 | 0.00 | 63 | 1077.2 |
| 20260505204703 | 15 | 80 | 11.3 | 24.1 | 0.00 | 0.00 | 0.00 | 63 | 1077.0 |
| 20260505204603 | 15 | 80 | 11.3 | 24.1 | 0.00 | 0.00 | 0.00 | 63 | 1077.1 |
| 20260505204503 | 15 | 79 | 11.3 | 24.1 | 0.00 | 0.00 | 0.00 | 63 | 1077.2 |
| 20260505204403 | 15 | 76 | 11.3 | 24.1 | 0.00 | 0.00 | 0.00 | 63 | 1077.1 |
| 20260505204318 | 15 | 76 | 11.3 | 24.1 | 0.00 | 0.00 | 0.00 | 63 | 1077.1 |
| 20260505204303 | 15 | 77 | 11.3 | 24.1 | 0.00 | 0.00 | 0.00 | 63 | 1076.8 |
| 20260505204203 | 15 | 79 | 11.3 | 22.5 | 0.00 | 0.00 | 0.00 | 63 | 1077.1 |
| 20260505204118 | 15 | 78 | 11.3 | 22.5 | 0.00 | 0.00 | 0.00 | 63 | 1077.1 |
| 20260505204003 | 15 | 80 | 11.3 | 22.5 | 0.00 | 0.00 | 0.00 | 63 | 1077.1 |
| 20260505203817 | 15 | 82 | 11.3 | 22.5 | 0.00 | 0.00 | 0.00 | 63 | 1077.5 |
| 20260505203803 | 15 | 82 | 11.3 | 22.5 | 0.00 | 0.00 | 0.00 | 63 | 1077.4 |
| 20260505203703 | 15 | 83 | 11.3 | 22.5 | 0.00 | 0.00 | 0.00 | 63 | 1077.5 |
| 20260505203503 | 15 | 84 | 9.7 | 22.5 | 0.00 | 0.00 | 0.00 | 63 | 1077.4 |
| 20260505203403 | 15 | 87 | 8.0 | 20.9 | 0.00 | 0.00 | 0.00 | 62 | 1077.1 |
| 20260505203318 | 15 | 87 | 8.0 | 17.7 | 0.00 | 0.00 | 0.00 | 62 | 1077.1 |
| 20260505203303 | 15 | 87 | 8.0 | 17.7 | 0.00 | 0.00 | 0.00 | 62 | 1077.2 |
| 20260505203203 | 15 | 82 | 8.0 | 17.7 | 0.00 | 0.00 | 0.00 | 62 | 1077.4 |
| 20260505203003 | 15 | 85 | 8.0 | 25.7 | 0.00 | 0.00 | 0.00 | 62 | 1077.1 |
| 20260505202916 | 15 | 83 | 9.7 | 25.7 | 0.00 | 0.00 | 0.00 | 62 | 1077.1 |
| 20260505202903 | 15 | 82 | 9.7 | 25.7 | 0.00 | 0.00 | 0.00 | 62 | 1077.5 |
| 20260505202817 | 15 | 81 | 9.7 | 25.7 | 0.00 | 0.00 | 0.00 | 62 | 1077.5 |
| 20260505202803 | 15 | 80 | 9.7 | 25.7 | 0.00 | 0.00 | 0.00 | 62 | 1077.5 |
| 20260505202618 | 15 | 77 | 9.7 | 25.7 | 0.00 | 0.00 | 0.00 | 62 | 1077.4 |
| 20260505202517 | 15 | 78 | 9.7 | 25.7 | 0.00 | 0.00 | 0.00 | 61 | 1077.1 |
| 20260505202503 | 15 | 78 | 9.7 | 25.7 | 0.00 | 0.00 | 0.00 | 61 | 1077.2 |
| 20260505202417 | 15 | 79 | 11.3 | 25.7 | 0.00 | 0.00 | 0.00 | 61 | 1077.2 |
| 20260505202103 | 15 | 76 | 11.3 | 25.7 | 0.00 | 0.00 | 0.00 | 61 | 1077.0 |
| 20260505202003 | 15 | 75 | 9.7 | 17.7 | 0.00 | 0.00 | 0.00 | 61 | 1077.1 |
| 20260505201916 | 15 | 77 | 9.7 | 20.9 | 0.00 | 0.00 | 0.00 | 61 | 1077.1 |
| 20260505201903 | 15 | 76 | 9.7 | 20.9 | 0.00 | 0.00 | 0.00 | 61 | 1077.1 |
| 20260505201803 | 15 | 77 | 9.7 | 20.9 | 0.00 | 0.00 | 0.00 | 61 | 1077.0 |
| 20260505201603 | 15 | 77 | 9.7 | 24.1 | 0.00 | 0.00 | 0.00 | 61 | 1077.1 |
| 20260505201503 | 15 | 78 | 11.3 | 24.1 | 0.00 | 0.00 | 0.00 | 61 | 1077.2 |
| 20260505201417 | 15 | 77 | 11.3 | 24.1 | 0.00 | 0.00 | 0.00 | 61 | 1077.2 |
| 20260505201403 | 15 | 77 | 11.3 | 24.1 | 0.00 | 0.00 | 0.00 | 61 | 1077.4 |
| 20260505201303 | 15 | 78 | 11.3 | 24.1 | 0.00 | 0.00 | 0.00 | 61 | 1077.4 |
| 20260505201117 | 15 | 81 | 11.3 | 24.1 | 0.00 | 0.00 | 0.00 | 60 | 1077.2 |
| 20260505201103 | 15 | 81 | 11.3 | 24.1 | 0.00 | 0.00 | 0.00 | 60 | 1077.0 |
| 20260505201003 | 15 | 80 | 11.3 | 24.1 | 0.00 | 0.00 | 0.00 | 60 | 1077.1 |
| 20260505200803 | 16 | 81 | 11.3 | 24.1 | 0.00 | 0.00 | 0.00 | 60 | 1077.5 |
| 20260505200718 | 16 | 83 | 11.3 | 24.1 | 0.00 | 0.00 | 0.00 | 60 | 1077.5 |
| 20260505200703 | 16 | 84 | 11.3 | 24.1 | 0.00 | 0.00 | 0.00 | 60 | 1077.0 |
| 20260505200603 | 16 | 84 | 11.3 | 22.5 | 0.00 | 0.00 | 0.00 | 60 | 1077.4 |
| 20260505200403 | 16 | 85 | 11.3 | 22.5 | 0.00 | 0.00 | 0.00 | 59 | 1077.5 |
| 20260505200318 | 16 | 86 | 11.3 | 22.5 | 0.00 | 0.00 | 0.00 | 59 | 1077.5 |
| 20260505200303 | 16 | 84 | 11.3 | 22.5 | 0.00 | 0.00 | 0.00 | 59 | 1077.5 |
| 20260505200216 | 16 | 84 | 11.3 | 22.5 | 0.00 | 0.00 | 0.00 | 59 | 1077.5 |
| 20260505200203 | 16 | 84 | 11.3 | 22.5 | 0.00 | 0.00 | 0.00 | 60 | 1077.4 |
| 20260505195918 | 16 | 87 | 9.7 | 22.5 | 0.00 | 0.00 | 0.00 | 59 | 1077.2 |
| 20260505195903 | 16 | 88 | 9.7 | 22.5 | 0.00 | 0.00 | 0.00 | 59 | 1077.4 |
| 20260505195803 | 16 | 88 | 9.7 | 22.5 | 0.00 | 0.00 | 0.00 | 59 | 1077.4 |
| 20260505195603 | 16 | 85 | 9.7 | 22.5 | 0.00 | 0.00 | 0.00 | 59 | 1077.5 |
| 20260505195503 | 16 | 81 | 9.7 | 25.7 | 0.00 | 0.00 | 0.00 | 59 | 1077.6 |
| 20260505195403 | 16 | 80 | 9.7 | 25.7 | 0.00 | 0.00 | 0.00 | 59 | 1077.1 |
| 20260505195305 | 16 | 81 | 9.7 | 25.7 | 0.00 | 0.00 | 0.00 | 59 | 1077.5 |
| 20260505195203 | 16 | 80 | 9.7 | 25.7 | 0.00 | 0.00 | 0.00 | 59 | 1077.5 |
| 20260505195103 | 16 | 79 | 11.3 | 25.7 | 0.00 | 0.00 | 0.00 | 59 | 1077.2 |
| 20260505195003 | 16 | 75 | 11.3 | 25.7 | 0.00 | 0.00 | 0.00 | 59 | 1077.7 |
| 20260505194903 | 16 | 75 | 11.3 | 25.7 | 0.00 | 0.00 | 0.00 | 58 | 1077.5 |
| 20260505194803 | 16 | 75 | 11.3 | 25.7 | 0.00 | 0.00 | 0.00 | 58 | 1077.4 |
| 20260505194703 | 16 | 76 | 11.3 | 25.7 | 0.00 | 0.00 | 0.00 | 58 | 1077.2 |
| 20260505194603 | 16 | 78 | 11.3 | 25.7 | 0.00 | 0.00 | 0.00 | 58 | 1077.4 |
| 20260505194503 | 16 | 82 | 11.3 | 24.1 | 0.00 | 0.00 | 0.00 | 58 | 1077.2 |
| 20260505194417 | 16 | 82 | 11.3 | 24.1 | 0.00 | 0.00 | 0.00 | 58 | 1077.2 |
| 20260505194403 | 16 | 81 | 11.3 | 24.1 | 0.00 | 0.00 | 0.00 | 58 | 1077.1 |
| 20260505194303 | 16 | 81 | 11.3 | 24.1 | 0.00 | 0.00 | 0.00 | 58 | 1077.0 |
| 20260505194117 | 16 | 82 | 12.9 | 24.1 | 0.00 | 0.00 | 0.00 | 58 | 1077.4 |
| 20260505194103 | 16 | 80 | 12.9 | 24.1 | 0.00 | 0.00 | 0.00 | 58 | 1077.4 |
| 20260505194003 | 16 | 81 | 12.9 | 24.1 | 0.00 | 0.00 | 0.00 | 58 | 1077.4 |
| 20260505193817 | 16 | 82 | 11.3 | 22.5 | 0.00 | 0.00 | 0.00 | 58 | 1077.5 |
| 20260505193704 | 16 | 80 | 11.3 | 22.5 | 0.00 | 0.00 | 0.00 | 58 | 1077.1 |
| 20260505193503 | 16 | 77 | 11.3 | 22.5 | 0.00 | 0.00 | 0.00 | 57 | 1077.5 |
| 20260505193403 | 16 | 76 | 11.3 | 22.5 | 0.00 | 0.00 | 0.00 | 57 | 1077.1 |
| 20260505193318 | 16 | 77 | 11.3 | 22.5 | 0.00 | 0.00 | 0.00 | 57 | 1077.4 |
| 20260505193303 | 16 | 76 | 11.3 | 22.5 | 0.00 | 0.00 | 0.00 | 57 | 1077.4 |
| 20260505193203 | 16 | 75 | 11.3 | 22.5 | 0.00 | 0.00 | 0.00 | 57 | 1077.5 |
| 20260505193117 | 16 | 76 | 11.3 | 22.5 | 0.00 | 0.00 | 0.00 | 57 | 1077.2 |
| 20260505193003 | 16 | 76 | 11.3 | 22.5 | 0.00 | 0.00 | 0.00 | 57 | 1077.5 |
| 20260505192803 | 16 | 77 | 11.3 | 22.5 | 0.00 | 0.00 | 0.00 | 57 | 1077.1 |
| 20260505192703 | 17 | 80 | 11.3 | 22.5 | 0.00 | 0.00 | 0.00 | 56 | 1077.4 |
| 20260505192503 | 17 | 78 | 12.9 | 27.4 | 0.00 | 0.00 | 0.00 | 56 | 1077.5 |
| 20260505192403 | 17 | 79 | 12.9 | 27.4 | 0.00 | 0.00 | 0.00 | 56 | 1077.2 |
| 20260505192305 | 17 | 80 | 12.9 | 29.0 | 0.00 | 0.00 | 0.00 | 56 | 1077.2 |
| 20260505192203 | 17 | 80 | 12.9 | 29.0 | 0.00 | 0.00 | 0.00 | 56 | 1077.5 |
| 20260505192103 | 17 | 78 | 14.5 | 29.0 | 0.00 | 0.00 | 0.00 | 56 | 1077.2 |
| 20260505192003 | 17 | 79 | 14.5 | 29.0 | 0.00 | 0.00 | 0.00 | 56 | 1077.4 |
| 20260505191903 | 17 | 81 | 14.5 | 29.0 | 0.00 | 0.00 | 0.00 | 56 | 1077.4 |
| 20260505191803 | 17 | 81 | 14.5 | 29.0 | 0.00 | 0.00 | 0.00 | 56 | 1077.4 |
| 20260505191703 | 17 | 79 | 14.5 | 29.0 | 0.00 | 0.00 | 0.00 | 56 | 1077.4 |
| 20260505191618 | 17 | 80 | 12.9 | 29.0 | 0.00 | 0.00 | 0.00 | 56 | 1077.1 |
| 20260505191603 | 17 | 81 | 12.9 | 29.0 | 0.00 | 0.00 | 0.00 | 56 | 1077.1 |
| 20260505191503 | 17 | 84 | 12.9 | 29.0 | 0.00 | 0.00 | 0.00 | 56 | 1077.5 |
| 20260505191303 | 17 | 84 | 11.3 | 24.1 | 0.00 | 0.00 | 0.00 | 55 | 1077.6 |
| 20260505191203 | 17 | 83 | 11.3 | 24.1 | 0.00 | 0.00 | 0.00 | 55 | 1077.6 |
| 20260505191103 | 17 | 82 | 11.3 | 24.1 | 0.00 | 0.00 | 0.00 | 55 | 1077.4 |
| 20260505191003 | 17 | 82 | 9.7 | 24.1 | 0.00 | 0.00 | 0.00 | 55 | 1077.4 |
| 20260505190903 | 17 | 76 | 9.7 | 24.1 | 0.00 | 0.00 | 0.00 | 55 | 1077.2 |
| 20260505190803 | 17 | 75 | 9.7 | 24.1 | 0.00 | 0.00 | 0.00 | 55 | 1077.2 |
| 20260505190703 | 17 | 74 | 9.7 | 24.1 | 0.00 | 0.00 | 0.00 | 55 | 1077.5 |
| 20260505190503 | 17 | 70 | 9.7 | 22.5 | 0.00 | 0.00 | 0.00 | 54 | 1077.5 |
| 20260505190403 | 17 | 73 | 9.7 | 24.1 | 0.00 | 0.00 | 0.00 | 54 | 1077.4 |
| 20260505190303 | 17 | 73 | 9.7 | 24.1 | 0.00 | 0.00 | 0.00 | 54 | 1077.4 |
| 20260505190204 | 17 | 74 | 9.7 | 24.1 | 0.00 | 0.00 | 0.00 | 54 | 1077.6 |
| 20260505190003 | 17 | 77 | 9.7 | 24.1 | 0.00 | 0.00 | 0.00 | 54 | 1077.1 |
| 20260505185903 | 17 | 76 | 9.7 | 24.1 | 0.00 | 0.00 | 0.00 | 54 | 1077.1 |
| 20260505185803 | 17 | 76 | 9.7 | 24.1 | 0.00 | 0.00 | 0.00 | 54 | 1077.2 |
| 20260505185703 | 18 | 74 | 9.7 | 24.1 | 0.00 | 0.00 | 0.00 | 54 | 1077.5 |
| 20260505185603 | 18 | 74 | 9.7 | 24.1 | 0.00 | 0.00 | 0.00 | 54 | 1077.1 |
| 20260505185503 | 18 | 73 | 9.7 | 24.1 | 0.00 | 0.00 | 0.00 | 54 | 1077.4 |
| 20260505185417 | 18 | 71 | 9.7 | 24.1 | 0.00 | 0.00 | 0.00 | 54 | 1077.4 |
| 20260505185403 | 18 | 71 | 9.7 | 24.1 | 0.00 | 0.00 | 0.00 | 54 | 1077.2 |
| 20260505185305 | 18 | 72 | 9.7 | 24.1 | 0.00 | 0.00 | 0.00 | 54 | 1077.2 |
| 20260505185117 | 18 | 77 | 11.3 | 24.1 | 0.00 | 0.00 | 0.00 | 53 | 1077.0 |
| 20260505185103 | 18 | 77 | 11.3 | 24.1 | 0.00 | 0.00 | 0.00 | 53 | 1077.2 |
| 20260505185003 | 18 | 77 | 11.3 | 24.1 | 0.00 | 0.00 | 0.00 | 53 | 1077.1 |
| 20260505184803 | 18 | 81 | 12.9 | 24.1 | 0.00 | 0.00 | 0.00 | 53 | 1077.5 |
| 20260505184703 | 18 | 83 | 11.3 | 24.1 | 0.00 | 0.00 | 0.00 | 53 | 1077.2 |
| 20260505184603 | 18 | 84 | 11.3 | 24.1 | 0.00 | 0.00 | 0.00 | 53 | 1077.1 |
| 20260505184518 | 18 | 84 | 11.3 | 24.1 | 0.00 | 0.00 | 0.00 | 53 | 1077.1 |
| 20260505184503 | 18 | 84 | 11.3 | 24.1 | 0.00 | 0.00 | 0.00 | 53 | 1077.4 |
| 20260505184403 | 18 | 84 | 9.7 | 24.1 | 0.00 | 0.00 | 0.00 | 52 | 1077.2 |
| 20260505184204 | 18 | 84 | 8.0 | 22.5 | 0.00 | 0.00 | 0.00 | 53 | 1077.4 |
| 20260505184103 | 18 | 79 | 8.0 | 22.5 | 0.00 | 0.00 | 0.00 | 52 | 1077.2 |
| 20260505184003 | 18 | 78 | 6.4 | 22.5 | 0.00 | 0.00 | 0.00 | 52 | 1077.1 |
| 20260505183903 | 18 | 74 | 6.4 | 16.1 | 0.00 | 0.00 | 0.00 | 52 | 1077.2 |
| 20260505183803 | 18 | 74 | 6.4 | 14.5 | 0.00 | 0.00 | 0.00 | 52 | 1077.1 |
| 20260505183703 | 18 | 74 | 6.4 | 14.5 | 0.00 | 0.00 | 0.00 | 52 | 1077.1 |
| 20260505183603 | 18 | 75 | 6.4 | 14.5 | 0.00 | 0.00 | 0.00 | 52 | 1077.1 |
| 20260505183503 | 18 | 74 | 6.4 | 14.5 | 0.00 | 0.00 | 0.00 | 51 | 1077.0 |
| 20260505183403 | 18 | 74 | 6.4 | 14.5 | 0.00 | 0.00 | 0.00 | 51 | 1077.1 |
| 20260505183303 | 18 | 75 | 6.4 | 14.5 | 0.00 | 0.00 | 0.00 | 51 | 1077.0 |
| 20260505183218 | 18 | 75 | 6.4 | 14.5 | 0.00 | 0.00 | 0.00 | 51 | 1077.0 |
| 20260505183203 | 18 | 75 | 6.4 | 14.5 | 0.00 | 0.00 | 0.00 | 51 | 1077.5 |
| 20260505183103 | 18 | 73 | 6.4 | 14.5 | 0.00 | 0.00 | 0.00 | 51 | 1076.9 |
| 20260505182918 | 18 | 74 | 8.0 | 14.5 | 0.00 | 0.00 | 0.00 | 51 | 1077.1 |
| 20260505182903 | 18 | 73 | 8.0 | 14.5 | 0.00 | 0.00 | 0.00 | 51 | 1077.2 |
| 20260505182803 | 18 | 73 | 8.0 | 14.5 | 0.00 | 0.00 | 0.00 | 51 | 1077.1 |
| 20260505182603 | 18 | 74 | 8.0 | 16.1 | 0.00 | 0.00 | 0.00 | 50 | 1077.1 |
| 20260505182503 | 18 | 75 | 8.0 | 16.1 | 0.00 | 0.00 | 0.00 | 50 | 1077.1 |
| 20260505182417 | 19 | 78 | 8.0 | 17.7 | 0.00 | 0.00 | 0.00 | 50 | 1077.1 |
| 20260505182403 | 19 | 80 | 8.0 | 17.7 | 0.00 | 0.00 | 0.00 | 50 | 1077.0 |
| 20260505182306 | 19 | 82 | 9.7 | 20.9 | 0.00 | 0.00 | 0.00 | 50 | 1076.9 |
| 20260505182103 | 19 | 83 | 11.3 | 24.1 | 0.00 | 0.00 | 0.00 | 49 | 1076.8 |
| 20260505182017 | 19 | 83 | 9.7 | 24.1 | 0.00 | 0.00 | 0.00 | 49 | 1076.8 |
| 20260505182003 | 19 | 84 | 9.7 | 24.1 | 0.00 | 0.00 | 0.00 | 49 | 1077.0 |
| 20260505181903 | 19 | 83 | 9.7 | 24.1 | 0.00 | 0.00 | 0.00 | 49 | 1076.9 |
| 20260505181703 | 19 | 85 | 9.7 | 24.1 | 0.00 | 0.00 | 0.00 | 49 | 1076.8 |
| 20260505181603 | 19 | 86 | 9.7 | 24.1 | 0.00 | 0.00 | 0.00 | 49 | 1077.1 |
| 20260505181503 | 19 | 87 | 9.7 | 24.1 | 0.00 | 0.00 | 0.00 | 49 | 1077.1 |
| 20260505181403 | 19 | 84 | 9.7 | 24.1 | 0.00 | 0.00 | 0.00 | 49 | 1077.1 |
| 20260505181303 | 19 | 84 | 9.7 | 24.1 | 0.00 | 0.00 | 0.00 | 49 | 1077.0 |
| 20260505181203 | 19 | 83 | 8.0 | 17.7 | 0.00 | 0.00 | 0.00 | 49 | 1077.2 |
| 20260505181103 | 19 | 82 | 8.0 | 20.9 | 0.00 | 0.00 | 0.00 | 49 | 1076.8 |
| 20260505181003 | 19 | 82 | 8.0 | 20.9 | 0.00 | 0.00 | 0.00 | 49 | 1076.9 |
| 20260505180903 | 19 | 84 | 9.7 | 20.9 | 0.00 | 0.00 | 0.00 | 48 | 1076.9 |
| 20260505180803 | 19 | 80 | 9.7 | 20.9 | 0.00 | 0.00 | 0.00 | 48 | 1076.9 |
| 20260505180703 | 19 | 76 | 9.7 | 20.9 | 0.00 | 0.00 | 0.00 | 48 | 1077.0 |
| 20260505180603 | 19 | 72 | 9.7 | 20.9 | 0.00 | 0.00 | 0.00 | 48 | 1076.9 |
| 20260505180503 | 19 | 71 | 8.0 | 20.9 | 0.00 | 0.00 | 0.00 | 48 | 1077.1 |
| 20260505180403 | 19 | 70 | 8.0 | 20.9 | 0.00 | 0.00 | 0.00 | 48 | 1077.0 |
| 20260505180303 | 19 | 67 | 8.0 | 20.9 | 0.00 | 0.00 | 0.00 | 47 | 1076.9 |
| 20260505180203 | 20 | 67 | 8.0 | 20.9 | 0.00 | 0.00 | 0.00 | 47 | 1077.1 |
| 20260505180103 | 20 | 67 | 8.0 | 17.7 | 0.00 | 0.00 | 0.00 | 47 | 1077.0 |
| 20260505180003 | 20 | 68 | 8.0 | 17.7 | 0.00 | 0.00 | 0.00 | 47 | 1076.8 |
| 20260505175903 | 20 | 67 | 6.4 | 17.7 | 0.00 | 0.00 | 0.00 | 47 | 1077.2 |
| 20260505175804 | 20 | 67 | 6.4 | 14.5 | 0.00 | 0.00 | 0.00 | 46 | 1077.1 |
| 20260505175703 | 20 | 73 | 6.4 | 14.5 | 0.00 | 0.00 | 0.00 | 46 | 1076.9 |
| 20260505175603 | 20 | 76 | 6.4 | 14.5 | 0.00 | 0.00 | 0.00 | 45 | 1077.1 |
| 20260505175503 | 20 | 77 | 6.4 | 14.5 | 0.00 | 0.00 | 0.00 | 46 | 1076.9 |
| 20260505175403 | 20 | 78 | 6.4 | 14.5 | 0.00 | 0.00 | 0.00 | 46 | 1076.9 |
| 20260505175305 | 20 | 82 | 6.4 | 14.5 | 0.00 | 0.00 | 0.00 | 46 | 1076.9 |
| 20260505175203 | 20 | 82 | 6.4 | 14.5 | 0.00 | 0.00 | 0.00 | 45 | 1076.9 |
| 20260505175103 | 20 | 82 | 6.4 | 14.5 | 0.00 | 0.00 | 0.00 | 45 | 1076.8 |
| 20260505175017 | 20 | 83 | 6.4 | 14.5 | 0.00 | 0.00 | 0.00 | 45 | 1076.8 |
| 20260505175003 | 20 | 84 | 4.8 | 14.5 | 0.00 | 0.00 | 0.00 | 45 | 1077.0 |
| 20260505174903 | 20 | 83 | 4.8 | 14.5 | 0.00 | 0.00 | 0.00 | 45 | 1076.9 |
| 20260505174703 | 20 | 86 | 4.8 | 14.5 | 0.00 | 0.00 | 0.00 | 44 | 1077.1 |
| 20260505174603 | 20 | 84 | 4.8 | 14.5 | 0.00 | 0.00 | 0.00 | 44 | 1076.8 |
| 20260505174503 | 20 | 85 | 4.8 | 14.5 | 0.00 | 0.00 | 0.00 | 44 | 1077.0 |
| 20260505174403 | 20 | 84 | 4.8 | 14.5 | 0.00 | 0.00 | 0.00 | 43 | 1077.0 |
| 20260505174303 | 20 | 82 | 4.8 | 11.3 | 0.00 | 0.00 | 0.00 | 42 | 1077.0 |
| 20260505174203 | 20 | 79 | 4.8 | 11.3 | 0.00 | 0.00 | 0.00 | 42 | 1076.9 |
| 20260505174103 | 20 | 79 | 4.8 | 11.3 | 0.00 | 0.00 | 0.00 | 42 | 1076.9 |
| 20260505174003 | 20 | 77 | 4.8 | 11.3 | 0.00 | 0.00 | 0.00 | 43 | 1076.9 |
| 20260505173903 | 20 | 76 | 4.8 | 11.3 | 0.00 | 0.00 | 0.00 | 42 | 1076.7 |
| 20260505173803 | 20 | 75 | 4.8 | 11.3 | 0.00 | 0.00 | 0.00 | 42 | 1076.9 |
| 20260505173703 | 20 | 73 | 4.8 | 9.7 | 0.00 | 0.00 | 0.00 | 42 | 1077.1 |
| 20260505173603 | 20 | 73 | 4.8 | 9.7 | 0.00 | 0.00 | 0.00 | 41 | 1077.0 |
| 20260505173503 | 20 | 72 | 4.8 | 9.7 | 0.00 | 0.00 | 0.00 | 41 | 1077.1 |
| 20260505173403 | 20 | 73 | 4.8 | 9.7 | 0.00 | 0.00 | 0.00 | 41 | 1077.1 |
| 20260505173303 | 20 | 75 | 3.2 | 9.7 | 0.00 | 0.00 | 0.00 | 41 | 1077.0 |
| 20260505173203 | 20 | 74 | 4.8 | 9.7 | 0.00 | 0.00 | 0.00 | 41 | 1076.9 |
| 20260505173103 | 20 | 72 | 4.8 | 12.9 | 0.00 | 0.00 | 0.00 | 41 | 1077.1 |
| 20260505173003 | 20 | 73 | 4.8 | 12.9 | 0.00 | 0.00 | 0.00 | 40 | 1077.0 |
| 20260505172903 | 20 | 74 | 3.2 | 12.9 | 0.00 | 0.00 | 0.00 | 40 | 1076.9 |
| 20260505172803 | 20 | 75 | 3.2 | 12.9 | 0.00 | 0.00 | 0.00 | 40 | 1077.0 |
| 20260505172703 | 20 | 74 | 4.8 | 12.9 | 0.00 | 0.00 | 0.00 | 40 | 1077.0 |
| 20260505172603 | 20 | 73 | 4.8 | 12.9 | 0.00 | 0.00 | 0.00 | 39 | 1077.0 |
| 20260505172503 | 20 | 72 | 3.2 | 12.9 | 0.00 | 0.00 | 0.00 | 39 | 1076.8 |
| 20260505172403 | 20 | 70 | 4.8 | 12.9 | 0.00 | 0.00 | 0.00 | 39 | 1077.0 |
| 20260505172305 | 20 | 69 | 4.8 | 12.9 | 0.00 | 0.00 | 0.00 | 39 | 1077.2 |
| 20260505172203 | 20 | 69 | 3.2 | 12.9 | 0.00 | 0.00 | 0.00 | 39 | 1077.1 |
| 20260505172103 | 20 | 72 | 3.2 | 9.7 | 0.00 | 0.00 | 0.00 | 39 | 1077.1 |
| 20260505172003 | 20 | 70 | 3.2 | 6.4 | 0.00 | 0.00 | 0.00 | 39 | 1077.1 |
| 20260505171903 | 20 | 70 | 3.2 | 6.4 | 0.00 | 0.00 | 0.00 | 39 | 1077.0 |
| 20260505171803 | 20 | 73 | 3.2 | 6.4 | 0.00 | 0.00 | 0.00 | 39 | 1077.1 |
| 20260505171703 | 20 | 72 | 3.2 | 9.7 | 0.00 | 0.00 | 0.00 | 39 | 1077.0 |
| 20260505171603 | 20 | 74 | 3.2 | 9.7 | 0.00 | 0.00 | 0.00 | 39 | 1077.0 |
| 20260505171503 | 20 | 74 | 3.2 | 9.7 | 0.00 | 0.00 | 0.00 | 38 | 1077.0 |
| 20260505171418 | 20 | 77 | 3.2 | 12.9 | 0.00 | 0.00 | 0.00 | 38 | 1077.0 |
| 20260505171403 | 20 | 78 | 3.2 | 12.9 | 0.00 | 0.00 | 0.00 | 38 | 1077.0 |
| 20260505171304 | 20 | 78 | 4.8 | 12.9 | 0.00 | 0.00 | 0.00 | 38 | 1076.9 |
| 20260505171103 | 20 | 81 | 4.8 | 12.9 | 0.00 | 0.00 | 0.00 | 39 | 1077.0 |
| 20260505171003 | 21 | 81 | 4.8 | 12.9 | 0.00 | 0.00 | 0.00 | 39 | 1077.1 |
| 20260505170903 | 21 | 77 | 6.4 | 16.1 | 0.00 | 0.00 | 0.00 | 38 | 1076.9 |
| 20260505170803 | 21 | 77 | 6.4 | 16.1 | 0.00 | 0.00 | 0.00 | 38 | 1077.1 |
| 20260505170703 | 21 | 78 | 6.4 | 16.1 | 0.00 | 0.00 | 0.00 | 38 | 1077.0 |
| 20260505170617 | 21 | 77 | 6.4 | 16.1 | 0.00 | 0.00 | 0.00 | 38 | 1077.0 |
| 20260505170503 | 21 | 77 | 6.4 | 16.1 | 0.00 | 0.00 | 0.00 | 38 | 1077.2 |
| 20260505170303 | 21 | 74 | 4.8 | 16.1 | 0.00 | 0.00 | 0.00 | 38 | 1077.2 |
| 20260505170203 | 21 | 73 | 4.8 | 16.1 | 0.00 | 0.00 | 0.00 | 38 | 1077.4 |
| 20260505170103 | 21 | 72 | 4.8 | 16.1 | 0.00 | 0.00 | 0.00 | 37 | 1077.4 |
| 20260505170003 | 21 | 73 | 4.8 | 16.1 | 0.00 | 0.00 | 0.00 | 38 | 1077.1 |
| 20260505165803 | 21 | 74 | 3.2 | 11.3 | 0.00 | 0.00 | 0.00 | 38 | 1077.2 |
| 20260505165703 | 21 | 75 | 3.2 | 11.3 | 0.00 | 0.00 | 0.00 | 38 | 1077.1 |
| 20260505165603 | 21 | 78 | 3.2 | 11.3 | 0.00 | 0.00 | 0.00 | 38 | 1077.1 |
| 20260505165503 | 21 | 79 | 3.2 | 11.3 | 0.00 | 0.00 | 0.00 | 38 | 1077.2 |
| 20260505165403 | 21 | 81 | 3.2 | 11.3 | 0.00 | 0.00 | 0.00 | 38 | 1077.1 |
| 20260505165305 | 21 | 82 | 3.2 | 11.3 | 0.00 | 0.00 | 0.00 | 38 | 1077.0 |
| 20260505165203 | 21 | 78 | 4.8 | 9.7 | 0.00 | 0.00 | 0.00 | 38 | 1076.8 |
| 20260505165118 | 21 | 78 | 4.8 | 9.7 | 0.00 | 0.00 | 0.00 | 38 | 1076.8 |
| 20260505165103 | 21 | 77 | 4.8 | 9.7 | 0.00 | 0.00 | 0.00 | 38 | 1077.0 |
| 20260505165003 | 21 | 71 | 4.8 | 11.3 | 0.00 | 0.00 | 0.00 | 38 | 1077.4 |
| 20260505164918 | 21 | 70 | 4.8 | 14.5 | 0.00 | 0.00 | 0.00 | 37 | 1077.4 |
| 20260505164803 | 21 | 69 | 6.4 | 14.5 | 0.00 | 0.00 | 0.00 | 38 | 1077.2 |
| 20260505164603 | 21 | 67 | 6.4 | 14.5 | 0.00 | 0.00 | 0.00 | 37 | 1077.2 |
| 20260505164503 | 21 | 65 | 6.4 | 14.5 | 0.00 | 0.00 | 0.00 | 37 | 1077.2 |
| 20260505164418 | 21 | 65 | 6.4 | 14.5 | 0.00 | 0.00 | 0.00 | 37 | 1077.2 |
| 20260505164403 | 21 | 65 | 6.4 | 14.5 | 0.00 | 0.00 | 0.00 | 37 | 1077.1 |
| 20260505164303 | 21 | 64 | 6.4 | 14.5 | 0.00 | 0.00 | 0.00 | 37 | 1077.2 |
| 20260505164103 | 21 | 68 | 6.4 | 14.5 | 0.00 | 0.00 | 0.00 | 37 | 1077.2 |
| 20260505164003 | 21 | 71 | 4.8 | 14.5 | 0.00 | 0.00 | 0.00 | 37 | 1077.4 |
| 20260505163917 | 21 | 75 | 4.8 | 12.9 | 0.00 | 0.00 | 0.00 | 37 | 1077.4 |
| 20260505163903 | 21 | 75 | 4.8 | 12.9 | 0.00 | 0.00 | 0.00 | 37 | 1077.5 |
| 20260505163803 | 21 | 79 | 6.4 | 20.9 | 0.00 | 0.00 | 0.00 | 37 | 1077.2 |
| 20260505163604 | 21 | 81 | 6.4 | 20.9 | 0.00 | 0.00 | 0.00 | 37 | 1077.5 |
| 20260505163503 | 21 | 84 | 6.4 | 20.9 | 0.00 | 0.00 | 0.00 | 37 | 1077.4 |
| 20260505163403 | 21 | 86 | 6.4 | 20.9 | 0.00 | 0.00 | 0.00 | 37 | 1077.4 |
| 20260505163317 | 21 | 86 | 6.4 | 20.9 | 0.00 | 0.00 | 0.00 | 37 | 1077.4 |
| 20260505163303 | 21 | 86 | 6.4 | 20.9 | 0.00 | 0.00 | 0.00 | 37 | 1077.2 |
| 20260505163217 | 21 | 87 | 8.0 | 20.9 | 0.00 | 0.00 | 0.00 | 37 | 1077.2 |
| 20260505163203 | 21 | 88 | 8.0 | 20.9 | 0.00 | 0.00 | 0.00 | 37 | 1077.6 |
| 20260505162903 | 21 | 87 | 8.0 | 20.9 | 0.00 | 0.00 | 0.00 | 36 | 1077.4 |
| 20260505162818 | 21 | 86 | 8.0 | 20.9 | 0.00 | 0.00 | 0.00 | 36 | 1077.4 |
| 20260505162803 | 21 | 85 | 8.0 | 16.1 | 0.00 | 0.00 | 0.00 | 36 | 1077.5 |
| 20260505162703 | 21 | 85 | 6.4 | 16.1 | 0.00 | 0.00 | 0.00 | 36 | 1077.2 |
| 20260505162503 | 21 | 85 | 6.4 | 16.1 | 0.00 | 0.00 | 0.00 | 37 | 1077.5 |
| 20260505162403 | 21 | 84 | 6.4 | 16.1 | 0.00 | 0.00 | 0.00 | 36 | 1077.5 |
| 20260505162306 | 21 | 84 | 6.4 | 16.1 | 0.00 | 0.00 | 0.00 | 36 | 1077.6 |
| 20260505162203 | 21 | 82 | 6.4 | 16.1 | 0.00 | 0.00 | 0.00 | 36 | 1077.7 |
| 20260505162103 | 21 | 83 | 6.4 | 16.1 | 0.00 | 0.00 | 0.00 | 37 | 1077.5 |
| 20260505162003 | 21 | 85 | 6.4 | 16.1 | 0.00 | 0.00 | 0.00 | 36 | 1077.6 |
| 20260505161903 | 21 | 85 | 6.4 | 16.1 | 0.00 | 0.00 | 0.00 | 37 | 1077.6 |
| 20260505161803 | 21 | 87 | 6.4 | 16.1 | 0.00 | 0.00 | 0.00 | 37 | 1077.6 |
| 20260505161703 | 21 | 86 | 8.0 | 16.1 | 0.00 | 0.00 | 0.00 | 36 | 1077.6 |
| 20260505161603 | 21 | 85 | 8.0 | 16.1 | 0.00 | 0.00 | 0.00 | 36 | 1077.7 |
| 20260505161503 | 21 | 83 | 8.0 | 16.1 | 0.00 | 0.00 | 0.00 | 37 | 1077.6 |
| 20260505161403 | 21 | 84 | 8.0 | 16.1 | 0.00 | 0.00 | 0.00 | 36 | 1077.6 |
| 20260505161303 | 21 | 83 | 8.0 | 16.1 | 0.00 | 0.00 | 0.00 | 35 | 1077.6 |
| 20260505161203 | 21 | 83 | 8.0 | 16.1 | 0.00 | 0.00 | 0.00 | 35 | 1077.8 |
| 20260505161103 | 22 | 82 | 8.0 | 16.1 | 0.00 | 0.00 | 0.00 | 35 | 1077.6 |
| 20260505161003 | 22 | 81 | 6.4 | 16.1 | 0.00 | 0.00 | 0.00 | 35 | 1077.6 |
| 20260505160903 | 22 | 82 | 6.4 | 16.1 | 0.00 | 0.00 | 0.00 | 35 | 1077.8 |
| 20260505160803 | 22 | 81 | 6.4 | 16.1 | 0.00 | 0.00 | 0.00 | 35 | 1077.7 |
| 20260505160703 | 22 | 83 | 6.4 | 20.9 | 0.00 | 0.00 | 0.00 | 35 | 1077.6 |
| 20260505160603 | 22 | 87 | 6.4 | 20.9 | 0.00 | 0.00 | 0.00 | 35 | 1077.8 |
| 20260505160503 | 22 | 88 | 8.0 | 27.4 | 0.00 | 0.00 | 0.00 | 35 | 1077.9 |
| 20260505160403 | 22 | 87 | 8.0 | 27.4 | 0.00 | 0.00 | 0.00 | 35 | 1077.7 |
| 20260505160303 | 22 | 89 | 8.0 | 27.4 | 0.00 | 0.00 | 0.00 | 35 | 1077.6 |
| 20260505160203 | 22 | 90 | 8.0 | 27.4 | 0.00 | 0.00 | 0.00 | 35 | 1077.6 |
| 20260505153303 | 23 | 91 | 9.7 | 24.1 | 0.00 | 0.00 | 0.00 | 35 | 1077.7 |
| 20260505153203 | 23 | 94 | 9.7 | 24.1 | 0.00 | 0.00 | 0.00 | 35 | 1077.7 |
| 20260505153118 | 23 | 92 | 11.3 | 24.1 | 0.00 | 0.00 | 0.00 | 35 | 1077.6 |
| 20260505153103 | 23 | 91 | 11.3 | 24.1 | 0.00 | 0.00 | 0.00 | 35 | 1077.6 |
| 20260505153003 | 23 | 87 | 9.7 | 24.1 | 0.00 | 0.00 | 0.00 | 35 | 1077.7 |
| 20260505152803 | 23 | 88 | 9.7 | 24.1 | 0.00 | 0.00 | 0.00 | 35 | 1077.7 |
| 20260505152703 | 23 | 89 | 8.0 | 22.5 | 0.00 | 0.00 | 0.00 | 35 | 1077.8 |
| 20260505152616 | 23 | 90 | 9.7 | 22.5 | 0.00 | 0.00 | 0.00 | 36 | 1077.9 |
| 20260505152604 | 23 | 90 | 9.7 | 22.5 | 0.00 | 0.00 | 0.00 | 36 | 1077.9 |
| 20260505152504 | 23 | 87 | 9.7 | 22.5 | 0.00 | 0.00 | 0.00 | 36 | 1077.7 |
| 20260505152418 | 23 | 89 | 9.7 | 22.5 | 0.00 | 0.00 | 0.00 | 36 | 1077.8 |
| 20260505152103 | 23 | 93 | 9.7 | 22.5 | 0.00 | 0.00 | 0.00 | 36 | 1077.8 |
| 20260505152003 | 23 | 98 | 11.3 | 22.5 | 0.00 | 0.00 | 0.00 | 36 | 1077.9 |
| 20260505151903 | 23 | 100 | 11.3 | 24.1 | 0.00 | 0.00 | 0.00 | 36 | 1077.8 |
| 20260505151803 | 23 | 101 | 12.9 | 24.1 | 0.00 | 0.00 | 0.00 | 37 | 1077.8 |
| 20260505151703 | 23 | 102 | 12.9 | 24.1 | 0.00 | 0.00 | 0.00 | 37 | 1077.9 |
| 20260505151603 | 23 | 102 | 12.9 | 24.1 | 0.00 | 0.00 | 0.00 | 37 | 1078.1 |
| 20260505151503 | 23 | 102 | 11.3 | 24.1 | 0.00 | 0.00 | 0.00 | 37 | 1077.8 |
| 20260505151403 | 23 | 100 | 11.3 | 24.1 | 0.00 | 0.00 | 0.00 | 37 | 1077.8 |
| 20260505151318 | 23 | 98 | 11.3 | 24.1 | 0.00 | 0.00 | 0.00 | 37 | 1078.0 |
| 20260505151303 | 23 | 99 | 11.3 | 24.1 | 0.00 | 0.00 | 0.00 | 37 | 1078.0 |
| 20260505151203 | 23 | 100 | 11.3 | 24.1 | 0.00 | 0.00 | 0.00 | 37 | 1078.0 |
| 20260505151117 | 23 | 98 | 9.7 | 24.1 | 0.00 | 0.00 | 0.00 | 37 | 1078.0 |
| 20260505151003 | 23 | 96 | 9.7 | 24.1 | 0.00 | 0.00 | 0.00 | 37 | 1078.1 |
| 20260505150803 | 23 | 96 | 8.0 | 22.5 | 0.00 | 0.00 | 0.00 | 37 | 1078.1 |
| 20260505150703 | 23 | 97 | 9.7 | 22.5 | 0.00 | 0.00 | 0.00 | 37 | 1077.9 |
| 20260505150603 | 23 | 97 | 9.7 | 22.5 | 0.00 | 0.00 | 0.00 | 38 | 1078.1 |
| 20260505150503 | 23 | 105 | 9.7 | 24.1 | 0.00 | 0.00 | 0.00 | 38 | 1077.8 |
| 20260505150403 | 23 | 106 | 9.7 | 24.1 | 0.00 | 0.00 | 0.00 | 38 | 1077.9 |
| 20260505150303 | 23 | 107 | 9.7 | 24.1 | 0.00 | 0.00 | 0.00 | 37 | 1078.0 |
| 20260505150203 | 23 | 107 | 11.3 | 24.1 | 0.00 | 0.00 | 0.00 | 37 | 1077.9 |
| 20260505140618 | 23 | 90 | 12.9 | 27.4 | 0.00 | 0.00 | 0.00 | 41 | 1078.8 |
| 20260505140303 | 23 | 94 | 12.9 | 27.4 | 0.00 | 0.00 | 0.00 | 40 | 1078.7 |
| 20260505140203 | 23 | 93 | 12.9 | 27.4 | 0.00 | 0.00 | 0.00 | 41 | 1078.6 |